QTR8837 KAUS-LEZL

Flight info

Callsign QTR8837
Flight time 9h 8m
Altitude 31000
Route ILEXY4 ZENZI DCT LFK DCT LIT DCT ROD/N0488F330 DCT DJB DCT DKK DCT KB87C DCT TOPPS N231B OMSAT/M084F330 DCT 4730N05000W 4830N04000W 48N030W 45N020W DCT BANAL/N0487F330 DCT LIS DCT SOTEX DCT LASIB DCT ROSAL M744 SANTA
Aircraft B77L/H-SDE1E2E3FGHIJ2J3J4J5M1RWXY/LB1D1

Departure

Time 2026-04-25 13:20
Airport Austin Bergstrom International Airport (KAUS)

Arrival

Time 2026-04-25 22:28
Airport Seville Airport (LEZL)
Time Latitude Longitude Altitude Speed Heading
2026-04-25 12:50 30.21541 -97.67170 532 ft 0 kts 99°
2026-04-25 13:12 30.21546 -97.67201 532 ft 4 kts 99°
2026-04-25 13:12 30.21548 -97.67212 532 ft 4 kts 99°
2026-04-25 13:13 30.21551 -97.67237 532 ft 0 kts 99°
2026-04-25 13:16 30.21553 -97.67229 532 ft 3 kts 74°
2026-04-25 13:16 30.21591 -97.67215 532 ft 7 kts 356°
2026-04-25 13:17 30.21622 -97.67258 532 ft 8 kts 283°
2026-04-25 13:17 30.21635 -97.67328 532 ft 10 kts 280°
2026-04-25 13:17 30.21648 -97.67414 532 ft 12 kts 280°
2026-04-25 13:17 30.21648 -97.67512 532 ft 13 kts 254°
2026-04-25 13:18 30.21598 -97.67600 531 ft 14 kts 225°
2026-04-25 13:18 30.21522 -97.67680 531 ft 15 kts 222°
2026-04-25 13:18 30.21438 -97.67765 531 ft 17 kts 221°
2026-04-25 13:18 30.21361 -97.67847 530 ft 14 kts 234°
2026-04-25 13:19 30.21340 -97.67912 530 ft 4 kts 250°
2026-04-25 13:19 30.21285 -97.67934 530 ft 13 kts 184°
2026-04-25 13:19 30.21191 -97.67934 531 ft 14 kts 179°
2026-04-25 13:19 30.21100 -97.67931 532 ft 32 kts 179°
2026-04-25 13:20 30.20350 -97.67910 532 ft 128 kts 179°
2026-04-25 13:20 30.19238 -97.67882 534 ft 188 kts 178°
2026-04-25 13:20 30.17852 -97.67856 911 ft 199 kts 179°
2026-04-25 13:20 30.16460 -97.67830 1530 ft 200 kts 171°
2026-04-25 13:21 30.15191 -97.67213 2061 ft 202 kts 137°
2026-04-25 13:21 30.14409 -97.65804 2322 ft 222 kts 108°
2026-04-25 13:21 30.14066 -97.63992 2464 ft 243 kts 103°
2026-04-25 13:21 30.13724 -97.62025 2733 ft 258 kts 103°
2026-04-25 13:22 30.13369 -97.59964 3094 ft 265 kts 103°
2026-04-25 13:22 30.13206 -97.57851 3541 ft 269 kts 81°
2026-04-25 13:22 30.13996 -97.55876 4058 ft 276 kts 53°
2026-04-25 13:23 30.16435 -97.52334 5342 ft 282 kts 54°
2026-04-25 13:23 30.17605 -97.50547 6060 ft 282 kts 54°
2026-04-25 13:23 30.18780 -97.48715 6703 ft 284 kts 54°
2026-04-25 13:23 30.19949 -97.46852 7307 ft 288 kts 55°
2026-04-25 13:24 30.21117 -97.44960 7907 ft 290 kts 55°
2026-04-25 13:24 30.22289 -97.43040 8508 ft 293 kts 55°
2026-04-25 13:24 30.23470 -97.41098 9086 ft 296 kts 55°
2026-04-25 13:24 30.24656 -97.39141 9661 ft 299 kts 55°
2026-04-25 13:25 30.25855 -97.37159 10190 ft 303 kts 54°
2026-04-25 13:25 30.27073 -97.35145 10447 ft 319 kts 54°
2026-04-25 13:25 30.28377 -97.32982 10615 ft 337 kts 53°
2026-04-25 13:25 30.29774 -97.30663 10787 ft 356 kts 53°
2026-04-25 13:26 30.31211 -97.28280 10954 ft 374 kts 53°
2026-04-25 13:26 30.32721 -97.25769 11351 ft 385 kts 53°
2026-04-25 13:26 30.34250 -97.23191 11867 ft 390 kts 56°
2026-04-25 13:26 30.35399 -97.20307 12393 ft 400 kts 72°
2026-04-25 13:27 30.35871 -97.17114 13056 ft 407 kts 86°
2026-04-25 13:27 30.35727 -97.13827 13662 ft 412 kts 94°
2026-04-25 13:27 30.35464 -97.10500 14224 ft 418 kts 94°
2026-04-25 13:27 30.35232 -97.07126 14791 ft 423 kts 93°
2026-04-25 13:28 30.35024 -97.03713 15386 ft 427 kts 93°
2026-04-25 13:28 30.34891 -97.01431 15779 ft 430 kts 93°
2026-04-25 13:28 30.34621 -96.96786 16542 ft 436 kts 93°
2026-04-25 13:28 30.34416 -96.93268 17070 ft 441 kts 94°
2026-04-25 13:29 30.34205 -96.89712 17610 ft 445 kts 94°
2026-04-25 13:29 30.33992 -96.86120 18127 ft 450 kts 94°
2026-04-25 13:29 30.33776 -96.82493 18614 ft 455 kts 94°
2026-04-25 13:30 30.33325 -96.75132 19642 ft 462 kts 94°
2026-04-25 13:30 30.33093 -96.71407 20139 ft 466 kts 94°
2026-04-25 13:30 30.32858 -96.67650 20622 ft 470 kts 94°
2026-04-25 13:31 30.32379 -96.60046 21545 ft 477 kts 94°
2026-04-25 13:31 30.32138 -96.56208 21979 ft 481 kts 94°
2026-04-25 13:31 30.31894 -96.52327 22385 ft 485 kts 94°
2026-04-25 13:31 30.31646 -96.48423 22813 ft 488 kts 94°
2026-04-25 13:32 30.31397 -96.44499 23246 ft 491 kts 94°
2026-04-25 13:32 30.31149 -96.40546 23657 ft 494 kts 94°
2026-04-25 13:32 30.30897 -96.36571 24065 ft 497 kts 94°
2026-04-25 13:32 30.30641 -96.32568 24449 ft 501 kts 94°
2026-04-25 13:33 30.30382 -96.28534 24824 ft 504 kts 94°
2026-04-25 13:33 30.30120 -96.24477 25174 ft 508 kts 93°
2026-04-25 13:33 30.29855 -96.20382 25526 ft 512 kts 93°
2026-04-25 13:33 30.29588 -96.16264 25875 ft 515 kts 93°
2026-04-25 13:34 30.29334 -96.12124 26196 ft 516 kts 90°
2026-04-25 13:34 30.29577 -96.07978 26397 ft 518 kts 76°
2026-04-25 13:34 30.30614 -96.03992 26718 ft 516 kts 63°
2026-04-25 13:34 30.32274 -96.00347 27100 ft 510 kts 50°
2026-04-25 13:35 30.34416 -95.97110 27407 ft 507 kts 46°
2026-04-25 13:35 30.36617 -95.93903 27695 ft 511 kts 46°
2026-04-25 13:35 30.38829 -95.90664 27821 ft 513 kts 46°
2026-04-25 13:35 30.41031 -95.87399 27863 ft 516 kts 47°
2026-04-25 13:36 30.43239 -95.84094 27880 ft 522 kts 47°
2026-04-25 13:36 30.45456 -95.80745 27888 ft 526 kts 47°
2026-04-25 13:36 30.47678 -95.77366 27888 ft 528 kts 47°
2026-04-25 13:36 30.49906 -95.73968 27886 ft 529 kts 48°
2026-04-25 13:37 30.52130 -95.70570 27874 ft 529 kts 48°
2026-04-25 13:37 30.54355 -95.67172 27875 ft 528 kts 48°
2026-04-25 13:37 30.56576 -95.63778 27876 ft 528 kts 48°
2026-04-25 13:37 30.58769 -95.60425 27880 ft 528 kts 48°
2026-04-25 13:38 30.60990 -95.57031 27882 ft 528 kts 48°
2026-04-25 13:38 30.63239 -95.53591 27876 ft 528 kts 48°
2026-04-25 13:38 30.65458 -95.50194 27872 ft 528 kts 48°
2026-04-25 13:38 30.67674 -95.46799 27869 ft 527 kts 48°
2026-04-25 13:39 30.69887 -95.43404 27871 ft 527 kts 48°
2026-04-25 13:39 30.72072 -95.40054 27872 ft 527 kts 48°
2026-04-25 13:39 30.74289 -95.36650 27870 ft 528 kts 48°
2026-04-25 13:39 30.76505 -95.33245 27870 ft 528 kts 48°
2026-04-25 13:40 30.78718 -95.29842 27870 ft 528 kts 49°
2026-04-25 13:40 30.80925 -95.26440 27868 ft 528 kts 49°
2026-04-25 13:40 30.83166 -95.22980 27872 ft 528 kts 49°
2026-04-25 13:40 30.85346 -95.19617 27871 ft 528 kts 49°
2026-04-25 13:41 30.87559 -95.16201 27868 ft 528 kts 49°
2026-04-25 13:41 30.89799 -95.12740 27871 ft 528 kts 49°
2026-04-25 13:41 30.92007 -95.09325 27870 ft 528 kts 49°
2026-04-25 13:41 30.94183 -95.05956 27872 ft 528 kts 49°
2026-04-25 13:42 30.96388 -95.02541 27871 ft 528 kts 49°
2026-04-25 13:42 30.98591 -94.99125 27867 ft 528 kts 49°
2026-04-25 13:42 31.00796 -94.95699 27872 ft 528 kts 49°
2026-04-25 13:42 31.02997 -94.92278 27871 ft 527 kts 49°
2026-04-25 13:43 31.05196 -94.88859 27869 ft 527 kts 49°
2026-04-25 13:43 31.07399 -94.85432 27871 ft 528 kts 49°
2026-04-25 13:43 31.09598 -94.82007 27870 ft 528 kts 49°
2026-04-25 13:43 31.11797 -94.78576 27869 ft 527 kts 49°
2026-04-25 13:44 31.14079 -94.75249 27864 ft 524 kts 43°
2026-04-25 13:44 31.16662 -94.72272 27867 ft 519 kts 37°
2026-04-25 13:44 31.19455 -94.69624 27877 ft 516 kts 31°
2026-04-25 13:44 31.22437 -94.67330 27872 ft 511 kts 25°
2026-04-25 13:45 31.25524 -94.65276 27880 ft 511 kts 24°
2026-04-25 13:45 31.28626 -94.63240 27877 ft 511 kts 24°
2026-04-25 13:45 31.31719 -94.61209 27868 ft 511 kts 24°
2026-04-25 13:45 31.34816 -94.59162 27870 ft 510 kts 25°
2026-04-25 13:46 31.37898 -94.57108 27871 ft 510 kts 25°
2026-04-25 13:46 31.40976 -94.55043 27870 ft 510 kts 25°
2026-04-25 13:46 31.44055 -94.52969 27876 ft 511 kts 25°
2026-04-25 13:46 31.47140 -94.50886 27878 ft 511 kts 25°
2026-04-25 13:47 31.50210 -94.48808 27848 ft 508 kts 25°
2026-04-25 13:47 31.53265 -94.46737 27617 ft 508 kts 25°
2026-04-25 13:47 31.56334 -94.44659 27259 ft 510 kts 25°
2026-04-25 13:47 31.59419 -94.42570 26934 ft 512 kts 25°
2026-04-25 13:48 31.62457 -94.40510 26896 ft 512 kts 25°
2026-04-25 13:48 31.65540 -94.38419 26890 ft 512 kts 26°
2026-04-25 13:48 31.68664 -94.36297 26880 ft 512 kts 26°
2026-04-25 13:48 31.71705 -94.34232 26879 ft 512 kts 26°
2026-04-25 13:49 31.74792 -94.32132 26885 ft 513 kts 26°
2026-04-25 13:49 31.77885 -94.30030 26884 ft 513 kts 26°
2026-04-25 13:49 31.80970 -94.27928 26880 ft 513 kts 26°
2026-04-25 13:49 31.84059 -94.25821 26889 ft 513 kts 26°
2026-04-25 13:50 31.87146 -94.23713 26891 ft 513 kts 26°
2026-04-25 13:50 31.90234 -94.21604 26886 ft 513 kts 26°
2026-04-25 13:50 31.93321 -94.19495 26886 ft 513 kts 26°
2026-04-25 13:50 31.96406 -94.17389 26882 ft 513 kts 26°
2026-04-25 13:51 31.99493 -94.15278 26891 ft 513 kts 26°
2026-04-25 13:51 32.02575 -94.13168 26889 ft 513 kts 26°
2026-04-25 13:51 32.05659 -94.11052 26894 ft 513 kts 26°
2026-04-25 13:51 32.08742 -94.08936 26896 ft 513 kts 26°
2026-04-25 13:52 32.11826 -94.06820 26900 ft 513 kts 26°
2026-04-25 13:52 32.14906 -94.04704 26898 ft 513 kts 26°
2026-04-25 13:52 32.17994 -94.02581 26897 ft 513 kts 26°
2026-04-25 13:52 32.21079 -94.00460 26900 ft 513 kts 26°
2026-04-25 13:53 32.24159 -93.98341 26908 ft 513 kts 26°
2026-04-25 13:53 32.27243 -93.96217 26908 ft 513 kts 26°
2026-04-25 13:53 32.30326 -93.94091 26907 ft 513 kts 26°
2026-04-25 13:53 32.33405 -93.91966 26907 ft 513 kts 26°
2026-04-25 13:54 32.36487 -93.89836 26909 ft 513 kts 26°
2026-04-25 13:54 32.39566 -93.87708 26902 ft 513 kts 26°
2026-04-25 13:54 32.42644 -93.85578 26896 ft 514 kts 26°
2026-04-25 13:54 32.45731 -93.83439 26897 ft 513 kts 26°
2026-04-25 13:55 32.48813 -93.81303 26898 ft 513 kts 26°
2026-04-25 13:55 32.51894 -93.79166 26898 ft 513 kts 26°
2026-04-25 13:55 32.54971 -93.77030 26900 ft 513 kts 26°
2026-04-25 13:55 32.58053 -93.74889 26904 ft 513 kts 26°
2026-04-25 13:56 32.61128 -93.72748 26907 ft 513 kts 26°
2026-04-25 13:56 32.64209 -93.70605 26908 ft 513 kts 26°
2026-04-25 13:56 32.67295 -93.68458 26907 ft 514 kts 26°
2026-04-25 13:56 32.70375 -93.66313 26907 ft 514 kts 26°
2026-04-25 13:57 32.72458 -93.64861 26910 ft 513 kts 26°
2026-04-25 13:57 32.74495 -93.63439 26909 ft 513 kts 26°
2026-04-25 13:57 32.78617 -93.60561 26905 ft 514 kts 26°
2026-04-25 13:57 32.81696 -93.58409 26907 ft 514 kts 26°
2026-04-25 13:58 32.84774 -93.56256 26909 ft 514 kts 26°
2026-04-25 13:58 32.87819 -93.54125 26907 ft 514 kts 26°
2026-04-25 13:58 32.90939 -93.51939 26906 ft 514 kts 26°
2026-04-25 13:58 32.93978 -93.49811 26905 ft 514 kts 26°
2026-04-25 13:59 32.97055 -93.47650 26906 ft 514 kts 26°
2026-04-25 13:59 33.00132 -93.45488 26909 ft 514 kts 26°
2026-04-25 13:59 33.03212 -93.43320 26910 ft 514 kts 26°
2026-04-25 13:59 33.06297 -93.41148 26907 ft 515 kts 26°
2026-04-25 14:00 33.08375 -93.39686 26908 ft 515 kts 26°
2026-04-25 14:00 33.12459 -93.36808 26906 ft 515 kts 26°
2026-04-25 14:00 33.15544 -93.34634 26904 ft 515 kts 26°
2026-04-25 14:00 33.18626 -93.32459 26896 ft 515 kts 26°
2026-04-25 14:01 33.21709 -93.30282 26897 ft 514 kts 26°
2026-04-25 14:01 33.24789 -93.28104 26899 ft 515 kts 26°
2026-04-25 14:01 33.27872 -93.25923 26897 ft 515 kts 26°
2026-04-25 14:01 33.30954 -93.23740 26898 ft 515 kts 26°
2026-04-25 14:02 33.34035 -93.21556 26898 ft 515 kts 26°
2026-04-25 14:02 33.37119 -93.19369 26897 ft 515 kts 26°
2026-04-25 14:02 33.40202 -93.17181 26897 ft 515 kts 26°
2026-04-25 14:02 33.42246 -93.15731 26900 ft 516 kts 26°
2026-04-25 14:03 33.46371 -93.12797 26904 ft 515 kts 26°
2026-04-25 14:03 33.49447 -93.10606 26907 ft 515 kts 26°
2026-04-25 14:03 33.52525 -93.08412 26906 ft 515 kts 26°
2026-04-25 14:03 33.55604 -93.06217 26909 ft 515 kts 26°
2026-04-25 14:04 33.58681 -93.04022 26904 ft 515 kts 26°
2026-04-25 14:04 33.61762 -93.01823 26911 ft 515 kts 26°
2026-04-25 14:04 33.64842 -92.99622 26920 ft 516 kts 26°
2026-04-25 14:04 33.67923 -92.97417 26916 ft 516 kts 26°
2026-04-25 14:05 33.71007 -92.95208 26917 ft 516 kts 26°
2026-04-25 14:05 33.74088 -92.92999 26917 ft 516 kts 26°
2026-04-25 14:05 33.77171 -92.90788 26919 ft 516 kts 26°
2026-04-25 14:05 33.80251 -92.88577 26917 ft 516 kts 26°
2026-04-25 14:06 33.83332 -92.86365 26914 ft 516 kts 26°
2026-04-25 14:06 33.86413 -92.84149 26916 ft 516 kts 26°
2026-04-25 14:06 33.89494 -92.81932 26919 ft 516 kts 26°
2026-04-25 14:06 33.92571 -92.79714 26919 ft 516 kts 26°
2026-04-25 14:07 33.95650 -92.77493 26918 ft 516 kts 26°
2026-04-25 14:07 33.98725 -92.75276 26922 ft 516 kts 26°
2026-04-25 14:07 34.01802 -92.73056 26925 ft 516 kts 26°
2026-04-25 14:07 34.04883 -92.70829 26928 ft 517 kts 26°
2026-04-25 14:08 34.07969 -92.68599 26927 ft 517 kts 26°
2026-04-25 14:08 34.11054 -92.66365 26926 ft 517 kts 26°
2026-04-25 14:08 34.14138 -92.64131 26924 ft 518 kts 26°
2026-04-25 14:08 34.17182 -92.61923 26926 ft 518 kts 26°
2026-04-25 14:09 34.20267 -92.59683 26927 ft 517 kts 26°
2026-04-25 14:09 34.23354 -92.57440 26926 ft 518 kts 26°
2026-04-25 14:09 34.26484 -92.55164 26927 ft 517 kts 26°
2026-04-25 14:09 34.28521 -92.53681 26928 ft 517 kts 26°
2026-04-25 14:10 34.32647 -92.50678 26928 ft 517 kts 26°
2026-04-25 14:10 34.35694 -92.48458 26924 ft 517 kts 26°
2026-04-25 14:10 34.38774 -92.46210 26928 ft 517 kts 26°
2026-04-25 14:10 34.41856 -92.43961 26926 ft 518 kts 26°
2026-04-25 14:11 34.44940 -92.41707 26927 ft 518 kts 26°
2026-04-25 14:11 34.48021 -92.39453 26926 ft 517 kts 26°
2026-04-25 14:11 34.51101 -92.37196 26926 ft 517 kts 26°
2026-04-25 14:11 34.54181 -92.34939 26925 ft 517 kts 26°
2026-04-25 14:12 34.57261 -92.32679 26925 ft 517 kts 26°
2026-04-25 14:12 34.60339 -92.30421 26921 ft 517 kts 26°
2026-04-25 14:12 34.63420 -92.28159 26925 ft 518 kts 26°
2026-04-25 14:12 34.66502 -92.25893 26930 ft 518 kts 26°
2026-04-25 14:13 34.69585 -92.23624 26934 ft 518 kts 26°
2026-04-25 14:13 34.72662 -92.21355 26939 ft 518 kts 26°
2026-04-25 14:13 34.75749 -92.19078 26934 ft 518 kts 26°
2026-04-25 14:13 34.78792 -92.16723 26930 ft 521 kts 31°
2026-04-25 14:14 34.81674 -92.14025 26928 ft 524 kts 36°
2026-04-25 14:14 34.84361 -92.11003 26929 ft 529 kts 42°
2026-04-25 14:14 34.86868 -92.07715 26932 ft 530 kts 43°
2026-04-25 14:14 34.89347 -92.04394 26930 ft 530 kts 44°
2026-04-25 14:15 34.91826 -92.01061 26927 ft 530 kts 44°
2026-04-25 14:15 34.92663 -91.99937 26927 ft 530 kts 44°
2026-04-25 14:15 34.96789 -91.94421 26923 ft 529 kts 44°
2026-04-25 14:15 34.99274 -91.91118 26928 ft 529 kts 44°
2026-04-25 14:16 35.01767 -91.87814 26924 ft 529 kts 44°
2026-04-25 14:16 35.04261 -91.84516 26925 ft 529 kts 43°
2026-04-25 14:16 35.06757 -91.81209 26927 ft 529 kts 44°
2026-04-25 14:16 35.09253 -91.77898 26929 ft 530 kts 44°
2026-04-25 14:17 35.11749 -91.74587 26933 ft 530 kts 44°
2026-04-25 14:17 35.14242 -91.71277 26936 ft 530 kts 44°
2026-04-25 14:17 35.16738 -91.67959 26940 ft 530 kts 44°
2026-04-25 14:17 35.19232 -91.64639 26941 ft 530 kts 44°
2026-04-25 14:18 35.21721 -91.61322 26948 ft 530 kts 44°
2026-04-25 14:18 35.24182 -91.58036 26948 ft 530 kts 44°
2026-04-25 14:18 35.26671 -91.54710 26942 ft 530 kts 44°
2026-04-25 14:18 35.29160 -91.51381 26946 ft 530 kts 44°
2026-04-25 14:19 35.31680 -91.48008 26943 ft 530 kts 44°
2026-04-25 14:19 35.34169 -91.44674 26943 ft 530 kts 44°
2026-04-25 14:19 35.36653 -91.41343 26942 ft 530 kts 44°
2026-04-25 14:19 35.39142 -91.38004 26948 ft 530 kts 44°
2026-04-25 14:20 35.41597 -91.34709 26944 ft 531 kts 44°
2026-04-25 14:20 35.43276 -91.32450 26944 ft 531 kts 44°
2026-04-25 14:20 35.46569 -91.28014 26944 ft 531 kts 44°
2026-04-25 14:20 35.49047 -91.24671 26948 ft 530 kts 44°
2026-04-25 14:21 35.51531 -91.21319 26949 ft 531 kts 44°
2026-04-25 14:21 35.54013 -91.17971 26944 ft 530 kts 44°
2026-04-25 14:21 35.56497 -91.14618 26947 ft 530 kts 44°
2026-04-25 14:21 35.58972 -91.11273 26938 ft 530 kts 44°
2026-04-25 14:22 35.61450 -91.07915 26942 ft 530 kts 44°
2026-04-25 14:22 35.63929 -91.04550 26946 ft 531 kts 44°
2026-04-25 14:22 35.66402 -91.01190 26942 ft 531 kts 44°
2026-04-25 14:22 35.68880 -90.97822 26945 ft 531 kts 44°
2026-04-25 14:23 35.71353 -90.94460 26945 ft 530 kts 44°
2026-04-25 14:23 35.73828 -90.91091 26942 ft 531 kts 45°
2026-04-25 14:23 35.76304 -90.87718 26942 ft 531 kts 45°
2026-04-25 14:23 35.78778 -90.84344 26941 ft 530 kts 45°
2026-04-25 14:24 35.81247 -90.80975 26932 ft 530 kts 45°
2026-04-25 14:24 35.83721 -90.77596 26933 ft 530 kts 45°
2026-04-25 14:24 35.86189 -90.74222 26929 ft 530 kts 45°
2026-04-25 14:24 35.88653 -90.70848 26936 ft 530 kts 45°
2026-04-25 14:25 35.91124 -90.67459 26935 ft 530 kts 45°
2026-04-25 14:25 35.93592 -90.64072 26934 ft 531 kts 45°
2026-04-25 14:25 35.96060 -90.60682 26934 ft 531 kts 45°
2026-04-25 14:25 35.96895 -90.59535 26939 ft 531 kts 45°
2026-04-25 14:26 36.00995 -90.53894 26934 ft 531 kts 45°
2026-04-25 14:26 36.03464 -90.50492 26934 ft 531 kts 45°
2026-04-25 14:26 36.05928 -90.47095 26934 ft 532 kts 45°
2026-04-25 14:26 36.08398 -90.43687 26938 ft 532 kts 45°
2026-04-25 14:27 36.10867 -90.40274 26938 ft 532 kts 45°
2026-04-25 14:27 36.13327 -90.36870 26932 ft 531 kts 45°
2026-04-25 14:27 36.15789 -90.33459 26932 ft 531 kts 45°
2026-04-25 14:27 36.18250 -90.30046 26928 ft 531 kts 45°
2026-04-25 14:28 36.20674 -90.26681 26923 ft 531 kts 45°
2026-04-25 14:28 36.23132 -90.23269 26927 ft 531 kts 45°
2026-04-25 14:28 36.25592 -90.19850 26928 ft 532 kts 46°
2026-04-25 14:28 36.28049 -90.16431 26926 ft 532 kts 46°
2026-04-25 14:29 36.30509 -90.13006 26928 ft 532 kts 46°
2026-04-25 14:29 36.32967 -90.09578 26927 ft 532 kts 46°
2026-04-25 14:29 36.35421 -90.06151 26925 ft 532 kts 46°
2026-04-25 14:29 36.37877 -90.02718 26926 ft 531 kts 46°
2026-04-25 14:30 36.40326 -89.99291 26925 ft 531 kts 46°
2026-04-25 14:30 36.45232 -89.92420 26930 ft 532 kts 46°
2026-04-25 14:30 36.47683 -89.88980 26939 ft 532 kts 46°
2026-04-25 14:31 36.50136 -89.85534 26941 ft 532 kts 46°
2026-04-25 14:31 36.52587 -89.82088 26944 ft 532 kts 46°
2026-04-25 14:31 36.55035 -89.78643 26947 ft 532 kts 46°
2026-04-25 14:31 36.57484 -89.75195 26944 ft 532 kts 46°
2026-04-25 14:32 36.59929 -89.71744 26944 ft 532 kts 46°
2026-04-25 14:32 36.62374 -89.68289 26948 ft 532 kts 46°
2026-04-25 14:32 36.64817 -89.64834 26948 ft 532 kts 46°
2026-04-25 14:32 36.67261 -89.61376 26949 ft 532 kts 46°
2026-04-25 14:33 36.69703 -89.57917 26948 ft 532 kts 46°
2026-04-25 14:33 36.72148 -89.54451 26944 ft 532 kts 46°
2026-04-25 14:33 36.74589 -89.50986 26935 ft 532 kts 46°
2026-04-25 14:33 36.77027 -89.47521 26935 ft 532 kts 46°
2026-04-25 14:34 36.79466 -89.44051 26937 ft 532 kts 46°
2026-04-25 14:34 36.81905 -89.40578 26937 ft 532 kts 46°
2026-04-25 14:34 36.84344 -89.37101 26939 ft 532 kts 46°
2026-04-25 14:34 36.86777 -89.33629 26937 ft 532 kts 46°
2026-04-25 14:35 36.89215 -89.30148 26942 ft 532 kts 46°
2026-04-25 14:35 36.91655 -89.26658 26966 ft 532 kts 46°
2026-04-25 14:35 36.94084 -89.23181 26938 ft 532 kts 46°
2026-04-25 14:35 36.96519 -89.19692 26951 ft 532 kts 46°
2026-04-25 14:36 36.98948 -89.16207 26964 ft 532 kts 46°
2026-04-25 14:36 37.01383 -89.12712 26952 ft 532 kts 46°
2026-04-25 14:36 37.03782 -89.09261 26959 ft 532 kts 46°
2026-04-25 14:36 37.06241 -89.05722 26964 ft 532 kts 46°
2026-04-25 14:37 37.08635 -89.02274 26956 ft 532 kts 47°
2026-04-25 14:37 37.11065 -88.98768 26949 ft 532 kts 47°
2026-04-25 14:37 37.13491 -88.95267 26952 ft 532 kts 47°
2026-04-25 14:37 37.15919 -88.91760 26964 ft 533 kts 47°
2026-04-25 14:38 37.18347 -88.88248 26949 ft 533 kts 47°
2026-04-25 14:38 37.20776 -88.84732 26957 ft 533 kts 47°
2026-04-25 14:38 37.23205 -88.81216 26963 ft 533 kts 47°
2026-04-25 14:38 37.25629 -88.77695 26964 ft 532 kts 47°
2026-04-25 14:39 37.28046 -88.74179 26960 ft 532 kts 47°
2026-04-25 14:39 37.30467 -88.70656 26964 ft 533 kts 47°
2026-04-25 14:39 37.32884 -88.67134 26959 ft 533 kts 47°
2026-04-25 14:39 37.35307 -88.63603 26962 ft 533 kts 47°
2026-04-25 14:40 37.37725 -88.60075 26962 ft 533 kts 47°
2026-04-25 14:40 37.40143 -88.56543 26962 ft 533 kts 47°
2026-04-25 14:40 37.42561 -88.53006 26966 ft 533 kts 47°
2026-04-25 14:40 37.44944 -88.49516 26957 ft 533 kts 47°
2026-04-25 14:41 37.47364 -88.45973 26968 ft 533 kts 47°
2026-04-25 14:41 37.49785 -88.42422 26964 ft 534 kts 47°
2026-04-25 14:41 37.52198 -88.38878 26970 ft 533 kts 47°
2026-04-25 14:41 37.54612 -88.35328 26976 ft 534 kts 48°
2026-04-25 14:42 37.57029 -88.31771 26970 ft 534 kts 48°
2026-04-25 14:42 37.57839 -88.30577 26975 ft 534 kts 48°
2026-04-25 14:42 37.61853 -88.24659 26971 ft 534 kts 48°
2026-04-25 14:42 37.64262 -88.21101 26974 ft 534 kts 48°
2026-04-25 14:43 37.66679 -88.17529 26976 ft 534 kts 48°
2026-04-25 14:43 37.69085 -88.13972 26970 ft 534 kts 48°
2026-04-25 14:43 37.70687 -88.11599 26972 ft 534 kts 48°
2026-04-25 14:43 37.73904 -88.06823 26969 ft 534 kts 48°
2026-04-25 14:44 37.75498 -88.04455 26970 ft 534 kts 48°
2026-04-25 14:44 37.77903 -88.00881 26975 ft 534 kts 48°
2026-04-25 14:44 37.80309 -87.97304 26971 ft 534 kts 48°
2026-04-25 14:44 37.82714 -87.93724 26970 ft 534 kts 48°
2026-04-25 14:45 37.85116 -87.90143 26972 ft 534 kts 48°
2026-04-25 14:45 37.87521 -87.86553 26973 ft 534 kts 48°
2026-04-25 14:45 37.89921 -87.82966 26973 ft 534 kts 48°
2026-04-25 14:45 37.92323 -87.79372 26974 ft 534 kts 48°
2026-04-25 14:46 37.94724 -87.75776 26983 ft 536 kts 48°
2026-04-25 14:46 37.97138 -87.72158 27152 ft 540 kts 48°
2026-04-25 14:46 37.99564 -87.68519 27565 ft 539 kts 48°
2026-04-25 14:46 38.01982 -87.64888 28051 ft 537 kts 49°
2026-04-25 14:47 38.04381 -87.61275 28575 ft 534 kts 49°
2026-04-25 14:47 38.05964 -87.58890 28892 ft 533 kts 49°
2026-04-25 14:47 38.11559 -87.50452 28982 ft 534 kts 49°
2026-04-25 14:48 38.16331 -87.43242 28979 ft 533 kts 49°
2026-04-25 14:48 38.21096 -87.36022 28975 ft 533 kts 49°
2026-04-25 14:49 38.25854 -87.28798 28971 ft 533 kts 49°
2026-04-25 14:49 38.30622 -87.21542 28969 ft 534 kts 49°
2026-04-25 14:50 38.35394 -87.14265 28973 ft 535 kts 49°
2026-04-25 14:50 38.40152 -87.06985 28977 ft 535 kts 49°
2026-04-25 14:51 38.44914 -86.99690 28973 ft 535 kts 49°
2026-04-25 14:51 38.49675 -86.92378 28967 ft 535 kts 50°
2026-04-25 14:52 38.54399 -86.85107 28985 ft 535 kts 50°
2026-04-25 14:52 38.58382 -86.78966 28986 ft 536 kts 50°
2026-04-25 14:53 38.63898 -86.70434 28985 ft 536 kts 50°
2026-04-25 14:53 38.68674 -86.63032 28980 ft 536 kts 50°
2026-04-25 14:54 38.73380 -86.55718 28984 ft 536 kts 50°
2026-04-25 14:54 38.78120 -86.48340 28979 ft 536 kts 50°
2026-04-25 14:55 38.82851 -86.40959 28975 ft 536 kts 50°
2026-04-25 14:55 38.87583 -86.33559 28980 ft 536 kts 50°
2026-04-25 14:56 38.92308 -86.26152 28980 ft 536 kts 50°
2026-04-25 14:56 38.97025 -86.18743 28970 ft 536 kts 50°
2026-04-25 14:57 39.01736 -86.11315 28965 ft 536 kts 50°
2026-04-25 14:57 39.06444 -86.03884 28979 ft 536 kts 50°
2026-04-25 14:58 39.11150 -85.96437 28971 ft 536 kts 51°
2026-04-25 14:58 39.15839 -85.89000 28974 ft 535 kts 51°
2026-04-25 14:59 39.20525 -85.81514 28949 ft 537 kts 51°
2026-04-25 14:59 39.25229 -85.74041 28949 ft 536 kts 51°
2026-04-25 15:00 39.29916 -85.66567 28966 ft 536 kts 50°
2026-04-25 15:00 39.34575 -85.59044 28972 ft 536 kts 52°
2026-04-25 15:01 39.39243 -85.51529 28974 ft 536 kts 51°
2026-04-25 15:01 39.43932 -85.44033 28974 ft 537 kts 51°
2026-04-25 15:02 39.48616 -85.36501 28971 ft 536 kts 51°
2026-04-25 15:02 39.53273 -85.28984 28976 ft 534 kts 51°
2026-04-25 15:03 39.57927 -85.21450 28978 ft 536 kts 51°
2026-04-25 15:03 39.62570 -85.13906 28989 ft 536 kts 51°
2026-04-25 15:04 39.67209 -85.06350 28976 ft 535 kts 51°
2026-04-25 15:04 39.71844 -84.98786 28980 ft 535 kts 51°
2026-04-25 15:05 39.76474 -84.91210 28984 ft 535 kts 51°
2026-04-25 15:06 39.83400 -84.79846 28987 ft 535 kts 51°
2026-04-25 15:06 39.88014 -84.72245 28985 ft 535 kts 51°
2026-04-25 15:07 39.92617 -84.64656 28983 ft 534 kts 52°
2026-04-25 15:07 39.97214 -84.57054 28968 ft 534 kts 52°
2026-04-25 15:08 40.01808 -84.49439 28964 ft 534 kts 52°
2026-04-25 15:08 40.06374 -84.41849 28969 ft 537 kts 52°
2026-04-25 15:09 40.10985 -84.34166 28981 ft 537 kts 52°
2026-04-25 15:09 40.17894 -84.22620 28981 ft 537 kts 52°
2026-04-25 15:10 40.22485 -84.14922 28982 ft 537 kts 52°
2026-04-25 15:11 40.29367 -84.03348 28966 ft 537 kts 52°
2026-04-25 15:11 40.33920 -83.95595 28973 ft 537 kts 52°
2026-04-25 15:12 40.40719 -83.83917 28974 ft 537 kts 52°
2026-04-25 15:12 40.43752 -83.78699 28966 ft 537 kts 52°
2026-04-25 15:13 40.52043 -83.64407 28967 ft 537 kts 52°
2026-04-25 15:14 40.56569 -83.56580 28944 ft 537 kts 52°
2026-04-25 15:14 40.61084 -83.48750 28943 ft 537 kts 52°
2026-04-25 15:15 40.65581 -83.40932 29000 ft 540 kts 53°
2026-04-25 15:15 40.67871 -83.36943 29308 ft 542 kts 53°
2026-04-25 15:15 40.70132 -83.32999 29775 ft 539 kts 53°
2026-04-25 15:15 40.72359 -83.29109 30213 ft 537 kts 53°
2026-04-25 15:16 40.74607 -83.25177 30646 ft 536 kts 53°
2026-04-25 15:16 40.76848 -83.21253 31020 ft 535 kts 53°
2026-04-25 15:16 40.81334 -83.13385 31628 ft 537 kts 53°
2026-04-25 15:17 40.85820 -83.05496 32271 ft 537 kts 53°
2026-04-25 15:17 40.88059 -83.01551 32584 ft 537 kts 53°
2026-04-25 15:17 40.90296 -82.97605 32864 ft 536 kts 53°
2026-04-25 15:18 40.92532 -82.93654 32901 ft 537 kts 52°
2026-04-25 15:18 40.99249 -82.81759 32941 ft 537 kts 53°
2026-04-25 15:19 41.02235 -82.76454 32946 ft 537 kts 53°
2026-04-25 15:19 41.08169 -82.65886 32945 ft 537 kts 53°
2026-04-25 15:20 41.12620 -82.57943 32946 ft 537 kts 53°
2026-04-25 15:20 41.17067 -82.49983 32944 ft 536 kts 53°
2026-04-25 15:21 41.21499 -82.42026 32946 ft 536 kts 53°
2026-04-25 15:21 41.25929 -82.34049 32945 ft 536 kts 53°
2026-04-25 15:22 41.30350 -82.26068 32954 ft 537 kts 53°
2026-04-25 15:22 41.34772 -82.18059 32958 ft 538 kts 54°
2026-04-25 15:23 41.38670 -82.09575 32958 ft 537 kts 62°
2026-04-25 15:23 41.42207 -82.00790 32953 ft 537 kts 62°
2026-04-25 15:24 41.45727 -81.92013 32942 ft 536 kts 62°
2026-04-25 15:24 41.48072 -81.86219 32935 ft 535 kts 62°
2026-04-25 15:25 41.52800 -81.74603 32934 ft 535 kts 62°
2026-04-25 15:25 41.56346 -81.65865 32943 ft 536 kts 62°
2026-04-25 15:26 41.59886 -81.57109 32943 ft 536 kts 62°
2026-04-25 15:26 41.63420 -81.48336 32942 ft 536 kts 62°
2026-04-25 15:27 41.66942 -81.39567 32947 ft 535 kts 62°
2026-04-25 15:28 41.72211 -81.26401 32956 ft 535 kts 62°
2026-04-25 15:28 41.75124 -81.19096 32952 ft 535 kts 62°
2026-04-25 15:29 41.78617 -81.10309 32947 ft 534 kts 62°
2026-04-25 15:29 41.82100 -81.01525 32939 ft 533 kts 62°
2026-04-25 15:30 41.85575 -80.92739 32930 ft 532 kts 62°
2026-04-25 15:30 41.89037 -80.83954 32923 ft 532 kts 62°
2026-04-25 15:31 41.92485 -80.75176 32911 ft 532 kts 61°
2026-04-25 15:31 41.95928 -80.66383 32920 ft 532 kts 61°
2026-04-25 15:32 41.99361 -80.57591 32913 ft 531 kts 61°
2026-04-25 15:32 42.02785 -80.48802 32903 ft 530 kts 61°
2026-04-25 15:33 42.07902 -80.35617 32914 ft 530 kts 61°
2026-04-25 15:33 42.11299 -80.26822 32910 ft 529 kts 61°
2026-04-25 15:34 42.14686 -80.18025 32910 ft 529 kts 61°
2026-04-25 15:34 42.17506 -80.10695 32906 ft 530 kts 61°
2026-04-25 15:35 42.23140 -79.95969 32909 ft 529 kts 62°
2026-04-25 15:36 42.28192 -79.82708 32903 ft 529 kts 62°
2026-04-25 15:36 42.31525 -79.73914 32892 ft 530 kts 62°
2026-04-25 15:37 42.34877 -79.65051 32886 ft 529 kts 62°
2026-04-25 15:37 42.38220 -79.56184 32886 ft 529 kts 62°
2026-04-25 15:38 42.41559 -79.47307 32889 ft 529 kts 62°
2026-04-25 15:38 42.44888 -79.38418 32894 ft 529 kts 62°
2026-04-25 15:39 42.48209 -79.29532 32883 ft 528 kts 62°
2026-04-25 15:39 42.51290 -79.20485 32888 ft 529 kts 65°
2026-04-25 15:40 42.53742 -79.12667 32895 ft 529 kts 66°
2026-04-25 15:40 42.57024 -79.02096 32896 ft 530 kts 66°
2026-04-25 15:41 42.59904 -78.92880 32885 ft 530 kts 65°
2026-04-25 15:41 42.62790 -78.83675 32885 ft 529 kts 65°
2026-04-25 15:42 42.65666 -78.74480 32904 ft 529 kts 65°
2026-04-25 15:42 42.68532 -78.65272 32900 ft 529 kts 65°
2026-04-25 15:43 42.71396 -78.56037 32904 ft 530 kts 65°
2026-04-25 15:43 42.74237 -78.46844 32904 ft 530 kts 65°
2026-04-25 15:44 42.77085 -78.37594 32892 ft 530 kts 65°
2026-04-25 15:44 42.79924 -78.28344 32898 ft 529 kts 65°
2026-04-25 15:45 42.82758 -78.19078 32909 ft 529 kts 65°
2026-04-25 15:45 42.85105 -78.11380 32902 ft 529 kts 65°
2026-04-25 15:46 42.88400 -78.00530 32913 ft 529 kts 66°
2026-04-25 15:46 42.91212 -77.91237 32923 ft 531 kts 65°
2026-04-25 15:47 42.94022 -77.81910 32924 ft 531 kts 65°
2026-04-25 15:47 42.96823 -77.72595 32928 ft 530 kts 65°
2026-04-25 15:48 42.99612 -77.63274 32938 ft 530 kts 65°
2026-04-25 15:48 43.02395 -77.53936 32942 ft 530 kts 65°
2026-04-25 15:49 43.05173 -77.44583 32949 ft 531 kts 65°
2026-04-25 15:49 43.07946 -77.35222 32943 ft 531 kts 65°
2026-04-25 15:50 43.10690 -77.25913 32946 ft 531 kts 65°
2026-04-25 15:50 43.13432 -77.16588 32680 ft 527 kts 65°
2026-04-25 15:51 43.14796 -77.11936 32390 ft 528 kts 65°
2026-04-25 15:51 43.15721 -77.08777 32167 ft 529 kts 65°
2026-04-25 15:51 43.17533 -77.02572 31726 ft 531 kts 65°
2026-04-25 15:51 43.18904 -76.97871 31363 ft 532 kts 65°
2026-04-25 15:52 43.20275 -76.93158 31042 ft 532 kts 65°
2026-04-25 15:52 43.21644 -76.88441 31002 ft 531 kts 65°
2026-04-25 15:52 43.24375 -76.79018 30992 ft 533 kts 65°
2026-04-25 15:53 43.27099 -76.69558 30948 ft 530 kts 65°
2026-04-25 15:53 43.28448 -76.64861 30704 ft 530 kts 65°
2026-04-25 15:53 43.29806 -76.60132 30347 ft 532 kts 65°
2026-04-25 15:54 43.31163 -76.55401 30032 ft 533 kts 65°
2026-04-25 15:54 43.32521 -76.50653 29732 ft 534 kts 66°
2026-04-25 15:54 43.33877 -76.45904 29416 ft 535 kts 66°
2026-04-25 15:54 43.35234 -76.41147 29132 ft 535 kts 66°
2026-04-25 15:55 43.37940 -76.31627 29025 ft 534 kts 65°
2026-04-25 15:55 43.40638 -76.22101 29020 ft 536 kts 65°
2026-04-25 15:56 43.43332 -76.12542 29019 ft 536 kts 66°
2026-04-25 15:56 43.46016 -76.02986 29020 ft 535 kts 66°
2026-04-25 15:57 43.48697 -75.93411 29029 ft 536 kts 65°
2026-04-25 15:57 43.51349 -75.83890 29039 ft 536 kts 65°
2026-04-25 15:58 43.54014 -75.74289 29041 ft 536 kts 65°
2026-04-25 15:58 43.56670 -75.64689 29039 ft 535 kts 65°
2026-04-25 15:59 43.59317 -75.55084 29040 ft 536 kts 65°
2026-04-25 15:59 43.61956 -75.45463 29037 ft 535 kts 65°
2026-04-25 16:00 43.63700 -75.39092 29040 ft 535 kts 65°
2026-04-25 16:00 43.67208 -75.26223 29051 ft 536 kts 65°
2026-04-25 16:01 43.69818 -75.16591 29047 ft 535 kts 65°
2026-04-25 16:01 43.72406 -75.07006 29049 ft 536 kts 65°
2026-04-25 16:02 43.75004 -74.97353 29038 ft 535 kts 65°
2026-04-25 16:02 43.77591 -74.87694 29045 ft 535 kts 64°
2026-04-25 16:03 43.80171 -74.78028 29046 ft 535 kts 64°
2026-04-25 16:03 43.82743 -74.68355 29046 ft 535 kts 64°
2026-04-25 16:04 43.85303 -74.58683 29058 ft 534 kts 64°
2026-04-25 16:04 43.87855 -74.49009 29051 ft 534 kts 64°
2026-04-25 16:05 43.90394 -74.39339 29064 ft 534 kts 64°
2026-04-25 16:06 43.94191 -74.24804 29066 ft 535 kts 63°
2026-04-25 16:06 43.96714 -74.15105 29067 ft 534 kts 63°
2026-04-25 16:07 43.99230 -74.05394 29051 ft 535 kts 63°
2026-04-25 16:07 44.01737 -73.95666 29052 ft 535 kts 64°
2026-04-25 16:08 44.04237 -73.85928 29071 ft 534 kts 64°
2026-04-25 16:08 44.06722 -73.76200 29077 ft 534 kts 64°
2026-04-25 16:09 44.09184 -73.66514 29076 ft 534 kts 65°
2026-04-25 16:09 44.10596 -73.56283 29075 ft 546 kts 82°
2026-04-25 16:10 44.10150 -73.47388 29085 ft 551 kts 94°
2026-04-25 16:10 44.10101 -73.40418 29088 ft 542 kts 73°
2026-04-25 16:10 44.11113 -73.35428 29105 ft 532 kts 61°
2026-04-25 16:11 44.14623 -73.26566 29111 ft 517 kts 48°
2026-04-25 16:11 44.18636 -73.18309 29108 ft 514 kts 48°
2026-04-25 16:12 44.22522 -73.09926 29117 ft 516 kts 50°
2026-04-25 16:12 44.25641 -73.02808 29119 ft 517 kts 50°
2026-04-25 16:13 44.29336 -72.94200 29110 ft 516 kts 51°
2026-04-25 16:13 44.33023 -72.85584 29118 ft 517 kts 50°
2026-04-25 16:14 44.36712 -72.76977 29124 ft 515 kts 50°
2026-04-25 16:14 44.40384 -72.68393 29121 ft 514 kts 50°
2026-04-25 16:15 44.44040 -72.59807 29131 ft 514 kts 50°
2026-04-25 16:15 44.47683 -72.51219 29130 ft 513 kts 50°
2026-04-25 16:16 44.51335 -72.42621 29123 ft 513 kts 50°
2026-04-25 16:16 44.54977 -72.34014 29125 ft 513 kts 50°
2026-04-25 16:17 44.58611 -72.25383 29113 ft 514 kts 50°
2026-04-25 16:17 44.62247 -72.16739 29126 ft 514 kts 50°
2026-04-25 16:18 44.65870 -72.08072 29125 ft 514 kts 51°
2026-04-25 16:18 44.69461 -71.99478 29119 ft 513 kts 50°
2026-04-25 16:19 44.73062 -71.90831 29115 ft 510 kts 51°
2026-04-25 16:19 44.76632 -71.82218 29117 ft 509 kts 51°
2026-04-25 16:20 44.81973 -71.69303 29121 ft 508 kts 51°
2026-04-25 16:21 44.87287 -71.56394 29109 ft 508 kts 52°
2026-04-25 16:21 44.90814 -71.47782 29115 ft 506 kts 52°
2026-04-25 16:22 44.94329 -71.39177 29095 ft 506 kts 52°
2026-04-25 16:22 44.97833 -71.30577 29103 ft 505 kts 52°
2026-04-25 16:23 45.01331 -71.21968 29091 ft 504 kts 53°
2026-04-25 16:23 45.04814 -71.13369 29098 ft 504 kts 53°
2026-04-25 16:24 45.08258 -71.04732 29091 ft 506 kts 56°
2026-04-25 16:24 45.10697 -70.95286 29102 ft 517 kts 70°
2026-04-25 16:25 45.11810 -70.85213 29094 ft 523 kts 78°
2026-04-25 16:25 45.12597 -70.74986 29083 ft 521 kts 78°
2026-04-25 16:26 45.13399 -70.64795 29086 ft 520 kts 78°
2026-04-25 16:26 45.14235 -70.54639 29086 ft 518 kts 78°
2026-04-25 16:27 45.15068 -70.44510 29082 ft 516 kts 78°
2026-04-25 16:27 45.15894 -70.34407 29088 ft 516 kts 78°
2026-04-25 16:28 45.16714 -70.24316 29086 ft 515 kts 79°
2026-04-25 16:28 45.17517 -70.14253 29076 ft 513 kts 79°
2026-04-25 16:29 45.18313 -70.04195 29087 ft 513 kts 79°
2026-04-25 16:29 45.19098 -69.94140 29087 ft 512 kts 79°
2026-04-25 16:30 45.19858 -69.84211 29074 ft 502 kts 80°
2026-04-25 16:30 45.20606 -69.74357 29091 ft 504 kts 80°
2026-04-25 16:31 45.21351 -69.64468 29091 ft 504 kts 81°
2026-04-25 16:31 45.22080 -69.54639 29081 ft 504 kts 81°
2026-04-25 16:32 45.22812 -69.44768 29086 ft 503 kts 81°
2026-04-25 16:32 45.23525 -69.34904 29095 ft 503 kts 81°
2026-04-25 16:33 45.24233 -69.25036 29090 ft 502 kts 81°
2026-04-25 16:33 45.24930 -69.15190 29092 ft 501 kts 81°
2026-04-25 16:34 45.25620 -69.05346 29089 ft 500 kts 82°
2026-04-25 16:34 45.26299 -68.95527 29094 ft 499 kts 82°
2026-04-25 16:35 45.26971 -68.85726 29091 ft 498 kts 82°
2026-04-25 16:35 45.27630 -68.75946 29092 ft 497 kts 82°
2026-04-25 16:36 45.28279 -68.66195 29093 ft 496 kts 83°
2026-04-25 16:36 45.28917 -68.56457 29102 ft 494 kts 83°
2026-04-25 16:37 45.29542 -68.46804 29097 ft 494 kts 83°
2026-04-25 16:37 45.30162 -68.37100 29087 ft 492 kts 83°
2026-04-25 16:38 45.30772 -68.27423 29092 ft 491 kts 83°
2026-04-25 16:38 45.31374 -68.17770 29092 ft 491 kts 84°
2026-04-25 16:39 45.31967 -68.08111 29092 ft 490 kts 84°
2026-04-25 16:39 45.32551 -67.98458 29091 ft 490 kts 84°
2026-04-25 16:40 45.33124 -67.88855 29091 ft 485 kts 85°
2026-04-25 16:40 45.33687 -67.79308 29088 ft 485 kts 85°
2026-04-25 16:41 45.34625 -67.69818 29070 ft 485 kts 76°
2026-04-25 16:41 45.37161 -67.55902 29054 ft 485 kts 75°
2026-04-25 16:42 45.38845 -67.46611 29048 ft 485 kts 75°
2026-04-25 16:42 45.40494 -67.37304 29047 ft 485 kts 75°
2026-04-25 16:43 45.42121 -67.28004 29047 ft 484 kts 75°
2026-04-25 16:43 45.43742 -67.18689 29042 ft 484 kts 75°
2026-04-25 16:44 45.45357 -67.09369 29037 ft 484 kts 76°
2026-04-25 16:44 45.46961 -67.00059 29041 ft 484 kts 76°
2026-04-25 16:45 45.48552 -66.90793 29028 ft 484 kts 76°
2026-04-25 16:45 45.50142 -66.81459 29028 ft 484 kts 76°
2026-04-25 16:46 45.51722 -66.72137 29027 ft 484 kts 76°
2026-04-25 16:46 45.52775 -66.65899 29029 ft 484 kts 76°
2026-04-25 16:47 45.54862 -66.53482 29017 ft 483 kts 76°
2026-04-25 16:47 45.56420 -66.44152 29018 ft 483 kts 76°
2026-04-25 16:48 45.57968 -66.34831 29019 ft 483 kts 76°
2026-04-25 16:48 45.59511 -66.25483 29020 ft 483 kts 76°
2026-04-25 16:49 45.61044 -66.16144 29020 ft 483 kts 76°
2026-04-25 16:49 45.62572 -66.06797 29015 ft 483 kts 76°
2026-04-25 16:50 45.64090 -65.97445 29013 ft 483 kts 76°
2026-04-25 16:50 45.65599 -65.88099 29008 ft 482 kts 76°
2026-04-25 16:51 45.67101 -65.78753 29010 ft 482 kts 76°
2026-04-25 16:51 45.68091 -65.72559 29007 ft 482 kts 76°
2026-04-25 16:52 45.70078 -65.60058 29012 ft 482 kts 76°
2026-04-25 16:52 45.71554 -65.50705 29010 ft 482 kts 76°
2026-04-25 16:53 45.73755 -65.36669 29011 ft 481 kts 76°
2026-04-25 16:54 45.75211 -65.27320 29014 ft 481 kts 77°
2026-04-25 16:54 45.76645 -65.18038 29007 ft 480 kts 76°
2026-04-25 16:55 45.78084 -65.08688 29011 ft 480 kts 76°
2026-04-25 16:55 45.79511 -64.99353 29009 ft 480 kts 76°
2026-04-25 16:56 45.80934 -64.90015 29008 ft 479 kts 76°
2026-04-25 16:56 45.82116 -64.82199 29002 ft 479 kts 76°
2026-04-25 16:57 45.83521 -64.72869 28997 ft 479 kts 76°
2026-04-25 16:57 45.84916 -64.63532 29001 ft 479 kts 76°
2026-04-25 16:58 45.86300 -64.54205 28998 ft 478 kts 76°
2026-04-25 16:58 45.87679 -64.44865 28988 ft 478 kts 76°
2026-04-25 16:59 45.89051 -64.35541 28990 ft 478 kts 76°
2026-04-25 16:59 45.90417 -64.26196 28990 ft 478 kts 76°
2026-04-25 17:00 45.91772 -64.16857 28995 ft 478 kts 76°
2026-04-25 17:00 45.93120 -64.07510 28993 ft 478 kts 76°
2026-04-25 17:01 45.94460 -63.98161 28987 ft 478 kts 76°
2026-04-25 17:01 45.95784 -63.88870 28984 ft 478 kts 76°
2026-04-25 17:02 45.97116 -63.79448 28983 ft 478 kts 76°
2026-04-25 17:02 45.98427 -63.70137 28971 ft 478 kts 76°
2026-04-25 17:03 45.99736 -63.60771 28966 ft 477 kts 76°
2026-04-25 17:03 46.01037 -63.51406 28974 ft 478 kts 76°
2026-04-25 17:04 46.02341 -63.41958 28966 ft 478 kts 76°
2026-04-25 17:04 46.03621 -63.32623 28951 ft 479 kts 76°
2026-04-25 17:05 46.04905 -63.23216 28958 ft 479 kts 76°
2026-04-25 17:05 46.06816 -63.09071 28957 ft 480 kts 76°
2026-04-25 17:06 46.08084 -62.99627 28962 ft 481 kts 76°
2026-04-25 17:06 46.09344 -62.90167 28963 ft 481 kts 76°
2026-04-25 17:07 46.10594 -62.80706 28949 ft 481 kts 76°
2026-04-25 17:07 46.11840 -62.71222 28952 ft 482 kts 76°
2026-04-25 17:08 46.13079 -62.61733 28941 ft 482 kts 76°
2026-04-25 17:08 46.14313 -62.52225 28940 ft 482 kts 76°
2026-04-25 17:09 46.15537 -62.42715 28936 ft 483 kts 76°
2026-04-25 17:09 46.16754 -62.33191 28924 ft 483 kts 76°
2026-04-25 17:10 46.17965 -62.23655 28919 ft 483 kts 76°
2026-04-25 17:10 46.19158 -62.14177 28902 ft 483 kts 76°
2026-04-25 17:11 46.20353 -62.04634 28899 ft 483 kts 76°
2026-04-25 17:11 46.21543 -61.95081 28893 ft 484 kts 77°
2026-04-25 17:12 46.22722 -61.85516 28882 ft 483 kts 77°
2026-04-25 17:12 46.23895 -61.75952 28881 ft 484 kts 77°
2026-04-25 17:13 46.24863 -61.68005 28872 ft 484 kts 77°
2026-04-25 17:13 46.26217 -61.56812 28854 ft 484 kts 77°
2026-04-25 17:14 46.27367 -61.47238 28843 ft 484 kts 77°
2026-04-25 17:14 46.28505 -61.37656 28843 ft 484 kts 77°
2026-04-25 17:15 46.29635 -61.28066 28850 ft 484 kts 77°
2026-04-25 17:15 46.30760 -61.18479 28841 ft 484 kts 77°
2026-04-25 17:16 46.31876 -61.08885 28822 ft 484 kts 77°
2026-04-25 17:16 46.32985 -60.99280 28808 ft 484 kts 77°
2026-04-25 17:17 46.34089 -60.89671 28789 ft 484 kts 77°
2026-04-25 17:17 46.35184 -60.80045 28781 ft 485 kts 77°
2026-04-25 17:18 46.36269 -60.70413 28772 ft 484 kts 77°
2026-04-25 17:18 46.37342 -60.60841 28768 ft 485 kts 77°
2026-04-25 17:19 46.38410 -60.51203 28764 ft 485 kts 77°
2026-04-25 17:19 46.39474 -60.41555 28756 ft 485 kts 77°
2026-04-25 17:20 46.40528 -60.31902 28748 ft 485 kts 78°
2026-04-25 17:20 46.41578 -60.22245 28742 ft 485 kts 78°
2026-04-25 17:21 46.42617 -60.12577 28739 ft 485 kts 78°
2026-04-25 17:21 46.43647 -60.02903 28741 ft 486 kts 78°
2026-04-25 17:22 46.44495 -59.94867 28737 ft 485 kts 78°
2026-04-25 17:22 46.45683 -59.83555 28733 ft 485 kts 78°
2026-04-25 17:23 46.46688 -59.73888 28742 ft 485 kts 78°
2026-04-25 17:23 46.47686 -59.64210 28741 ft 485 kts 78°
2026-04-25 17:24 46.48677 -59.54541 28737 ft 485 kts 78°
2026-04-25 17:24 46.49655 -59.44867 28741 ft 484 kts 78°
2026-04-25 17:25 46.50625 -59.35200 28741 ft 484 kts 78°
2026-04-25 17:25 46.51588 -59.25540 28744 ft 483 kts 78°
2026-04-25 17:26 46.52543 -59.15882 28735 ft 483 kts 78°
2026-04-25 17:26 46.53488 -59.06226 28730 ft 482 kts 78°
2026-04-25 17:27 46.54417 -58.96641 28731 ft 482 kts 78°
2026-04-25 17:27 46.55039 -58.90189 28728 ft 482 kts 78°
2026-04-25 17:28 46.56262 -58.77358 28719 ft 481 kts 78°
2026-04-25 17:28 46.57170 -58.67730 28717 ft 481 kts 78°
2026-04-25 17:29 46.58071 -58.58098 28707 ft 480 kts 78°
2026-04-25 17:29 46.58962 -58.48479 28703 ft 480 kts 78°
2026-04-25 17:30 46.59844 -58.38848 28685 ft 480 kts 78°
2026-04-25 17:30 46.60713 -58.29274 28680 ft 480 kts 78°
2026-04-25 17:31 46.61581 -58.19651 28668 ft 480 kts 78°
2026-04-25 17:31 46.62441 -58.10023 28662 ft 480 kts 78°
2026-04-25 17:32 46.63289 -58.00400 28645 ft 480 kts 78°
2026-04-25 17:32 46.64132 -57.90779 28635 ft 479 kts 78°
2026-04-25 17:33 46.64949 -57.81143 28616 ft 479 kts 78°
2026-04-25 17:33 46.65786 -57.71520 28617 ft 479 kts 78°
2026-04-25 17:34 46.66604 -57.61950 28603 ft 479 kts 78°
2026-04-25 17:34 46.67412 -57.52319 28589 ft 479 kts 79°
2026-04-25 17:35 46.68212 -57.42667 28578 ft 479 kts 79°
2026-04-25 17:35 46.69005 -57.33035 28565 ft 479 kts 79°
2026-04-25 17:36 46.69789 -57.23407 28550 ft 479 kts 79°
2026-04-25 17:36 46.70564 -57.13774 28538 ft 479 kts 79°
2026-04-25 17:37 46.71330 -57.04128 28533 ft 478 kts 79°
2026-04-25 17:37 46.72085 -56.94560 28527 ft 478 kts 79°
2026-04-25 17:38 46.72588 -56.88111 28520 ft 479 kts 79°
2026-04-25 17:38 46.73580 -56.75272 28518 ft 478 kts 79°
2026-04-25 17:39 46.74314 -56.65643 28512 ft 477 kts 79°
2026-04-25 17:39 46.75039 -56.56023 28505 ft 477 kts 79°
2026-04-25 17:40 46.75756 -56.46405 28506 ft 477 kts 79°
2026-04-25 17:40 46.76464 -56.36787 28497 ft 477 kts 79°
2026-04-25 17:41 46.77049 -56.28739 28490 ft 476 kts 79°
2026-04-25 17:41 46.77853 -56.17575 28494 ft 476 kts 79°
2026-04-25 17:42 46.78425 -56.09525 28501 ft 476 kts 79°
2026-04-25 17:42 46.79104 -55.99909 28493 ft 476 kts 79°
2026-04-25 17:43 46.79770 -55.90307 28500 ft 474 kts 79°
2026-04-25 17:43 46.80426 -55.80733 28497 ft 474 kts 79°
2026-04-25 17:44 46.81074 -55.71165 28500 ft 474 kts 79°
2026-04-25 17:44 46.81717 -55.61582 28498 ft 474 kts 79°
2026-04-25 17:45 46.82246 -55.53617 28510 ft 474 kts 79°
2026-04-25 17:45 46.82973 -55.42471 28506 ft 474 kts 79°
2026-04-25 17:46 46.83588 -55.32892 28504 ft 474 kts 79°
2026-04-25 17:46 46.84197 -55.23317 28502 ft 473 kts 80°
2026-04-25 17:47 46.84799 -55.13742 28504 ft 473 kts 79°
2026-04-25 17:47 46.85390 -55.04168 28511 ft 473 kts 80°
2026-04-25 17:48 46.86263 -54.89799 28499 ft 473 kts 80°
2026-04-25 17:49 46.86834 -54.80235 28490 ft 472 kts 80°
2026-04-25 17:49 46.87399 -54.70661 28482 ft 472 kts 80°
2026-04-25 17:50 46.87951 -54.61120 28468 ft 471 kts 80°
2026-04-25 17:50 46.88500 -54.51562 28466 ft 472 kts 80°
2026-04-25 17:51 46.89036 -54.42023 28453 ft 470 kts 80°
2026-04-25 17:51 46.89565 -54.32483 28442 ft 471 kts 80°
2026-04-25 17:52 46.90089 -54.22942 28437 ft 471 kts 80°
2026-04-25 17:52 46.90602 -54.13397 28438 ft 470 kts 80°
2026-04-25 17:53 46.91106 -54.03870 28424 ft 470 kts 80°
2026-04-25 17:53 46.91602 -53.94340 28421 ft 470 kts 80°
2026-04-25 17:54 46.92093 -53.84814 28415 ft 470 kts 80°
2026-04-25 17:54 46.92573 -53.75286 28413 ft 470 kts 80°
2026-04-25 17:55 46.93047 -53.65747 28416 ft 470 kts 80°
2026-04-25 17:55 46.93513 -53.56194 28401 ft 471 kts 81°
2026-04-25 17:56 46.93971 -53.46645 28406 ft 471 kts 81°
2026-04-25 17:56 46.94420 -53.37075 28396 ft 471 kts 81°
2026-04-25 17:57 46.94865 -53.27503 28394 ft 472 kts 81°
2026-04-25 17:57 46.95301 -53.17927 28393 ft 472 kts 81°
2026-04-25 17:58 46.95728 -53.08336 28395 ft 472 kts 81°
2026-04-25 17:58 46.96146 -52.98750 28391 ft 472 kts 81°
2026-04-25 17:59 46.96559 -52.89155 28393 ft 473 kts 81°
2026-04-25 17:59 46.96966 -52.79534 28373 ft 473 kts 81°
2026-04-25 18:00 46.97294 -52.71558 28364 ft 473 kts 82°
2026-04-25 18:00 46.97749 -52.60309 28370 ft 474 kts 82°
2026-04-25 18:01 46.98128 -52.50675 28368 ft 474 kts 82°
2026-04-25 18:01 46.98500 -52.41039 28351 ft 474 kts 82°
2026-04-25 18:02 46.98866 -52.31463 28344 ft 474 kts 82°
2026-04-25 18:02 46.99221 -52.21829 28347 ft 474 kts 82°
2026-04-25 18:03 46.99572 -52.12180 28346 ft 475 kts 82°
2026-04-25 18:03 47.00120 -52.02509 28340 ft 470 kts 76°
2026-04-25 18:04 47.01667 -51.93318 28358 ft 466 kts 67°
2026-04-25 18:04 47.03986 -51.84396 28361 ft 470 kts 65°
2026-04-25 18:05 47.06345 -51.75460 28352 ft 469 kts 65°
2026-04-25 18:05 47.08671 -51.66521 28358 ft 469 kts 66°
2026-04-25 18:06 47.10977 -51.57551 28354 ft 470 kts 66°
2026-04-25 18:06 47.13279 -51.48564 28355 ft 471 kts 66°
2026-04-25 18:07 47.15577 -51.39557 28360 ft 471 kts 66°
2026-04-25 18:07 47.17869 -51.30523 28356 ft 472 kts 66°
2026-04-25 18:08 47.20157 -51.21469 28358 ft 473 kts 67°
2026-04-25 18:08 47.22444 -51.12385 28357 ft 476 kts 66°
2026-04-25 18:09 47.24741 -51.03234 28355 ft 478 kts 66°
2026-04-25 18:09 47.27036 -50.94048 28363 ft 478 kts 67°
2026-04-25 18:10 47.28940 -50.86394 28365 ft 479 kts 67°
2026-04-25 18:10 47.31616 -50.75604 28365 ft 480 kts 68°
2026-04-25 18:11 47.33898 -50.66360 28365 ft 480 kts 68°
2026-04-25 18:11 47.36178 -50.57085 28366 ft 481 kts 68°
2026-04-25 18:12 47.38437 -50.47854 28364 ft 481 kts 68°
2026-04-25 18:12 47.40707 -50.38546 28377 ft 481 kts 69°
2026-04-25 18:13 47.42969 -50.29227 28373 ft 482 kts 69°
2026-04-25 18:13 47.45219 -50.19910 28377 ft 481 kts 69°
2026-04-25 18:14 47.48586 -50.05916 28373 ft 481 kts 69°
2026-04-25 18:14 47.50596 -49.96480 28375 ft 483 kts 76°
2026-04-25 18:15 47.52000 -49.86713 28387 ft 486 kts 78°
2026-04-25 18:15 47.53363 -49.76937 28381 ft 485 kts 78°
2026-04-25 18:16 47.54746 -49.67145 28385 ft 486 kts 78°
2026-04-25 18:17 47.56826 -49.52509 28383 ft 487 kts 78°
2026-04-25 18:17 47.58213 -49.42684 28386 ft 488 kts 78°
2026-04-25 18:18 47.59595 -49.32833 28373 ft 489 kts 78°
2026-04-25 18:18 47.60973 -49.22945 28376 ft 490 kts 79°
2026-04-25 18:19 47.62342 -49.13038 28373 ft 491 kts 79°
2026-04-25 18:19 47.63705 -49.03103 28376 ft 492 kts 79°
2026-04-25 18:20 47.65065 -48.93141 28374 ft 493 kts 79°
2026-04-25 18:20 47.66420 -48.83143 28375 ft 494 kts 80°
2026-04-25 18:21 47.67756 -48.73204 28373 ft 495 kts 80°
2026-04-25 18:21 47.69096 -48.63176 28378 ft 495 kts 81°
2026-04-25 18:22 47.70428 -48.53140 28388 ft 495 kts 81°
2026-04-25 18:22 47.71751 -48.43103 28402 ft 495 kts 81°
2026-04-25 18:23 47.73063 -48.33065 28421 ft 495 kts 81°
2026-04-25 18:23 47.74366 -48.23019 28431 ft 495 kts 81°
2026-04-25 18:24 47.75655 -48.13028 28428 ft 494 kts 81°
2026-04-25 18:24 47.76940 -48.02994 28430 ft 494 kts 82°
2026-04-25 18:25 47.78011 -47.94583 28440 ft 494 kts 82°
2026-04-25 18:25 47.79280 -47.84525 28446 ft 495 kts 82°
2026-04-25 18:26 47.80539 -47.74464 28439 ft 495 kts 82°
2026-04-25 18:26 47.81788 -47.64430 28444 ft 496 kts 82°
2026-04-25 18:27 47.83038 -47.54317 28449 ft 497 kts 82°
2026-04-25 18:27 47.84277 -47.44196 28453 ft 498 kts 82°
2026-04-25 18:28 47.85513 -47.34029 28450 ft 499 kts 83°
2026-04-25 18:28 47.86743 -47.23839 28449 ft 500 kts 83°
2026-04-25 18:29 47.88573 -47.08508 28460 ft 502 kts 83°
2026-04-25 18:30 47.90995 -46.87967 28459 ft 504 kts 84°
2026-04-25 18:30 47.92184 -46.77739 28459 ft 504 kts 84°
2026-04-25 18:31 47.93374 -46.67429 28464 ft 505 kts 84°
2026-04-25 18:31 47.94557 -46.57098 28469 ft 505 kts 85°
2026-04-25 18:32 47.95730 -46.46770 28468 ft 505 kts 85°
2026-04-25 18:32 47.96897 -46.36429 28471 ft 505 kts 85°
2026-04-25 18:33 47.98049 -46.26097 28478 ft 504 kts 85°
2026-04-25 18:33 47.99191 -46.15768 28474 ft 504 kts 85°
2026-04-25 18:34 48.00326 -46.05431 28478 ft 504 kts 85°
2026-04-25 18:34 48.01451 -45.95108 28482 ft 504 kts 85°
2026-04-25 18:35 48.02560 -45.84834 28488 ft 504 kts 85°
2026-04-25 18:35 48.03664 -45.74497 28488 ft 504 kts 85°
2026-04-25 18:36 48.04762 -45.64150 28487 ft 504 kts 86°
2026-04-25 18:36 48.05849 -45.53806 28494 ft 504 kts 86°
2026-04-25 18:37 48.06926 -45.43447 28496 ft 504 kts 86°
2026-04-25 18:37 48.07998 -45.33069 28498 ft 506 kts 86°
2026-04-25 18:38 48.09061 -45.22664 28487 ft 505 kts 87°
2026-04-25 18:38 48.10114 -45.12259 28488 ft 506 kts 87°
2026-04-25 18:39 48.11161 -45.01819 28487 ft 507 kts 88°
2026-04-25 18:39 48.12199 -44.91360 28487 ft 509 kts 88°
2026-04-25 18:40 48.13226 -44.80929 28494 ft 511 kts 89°
2026-04-25 18:40 48.14254 -44.70397 28501 ft 512 kts 89°
2026-04-25 18:41 48.15273 -44.59836 28497 ft 513 kts 89°
2026-04-25 18:41 48.16288 -44.49232 28500 ft 515 kts 90°
2026-04-25 18:42 48.17125 -44.40398 28505 ft 515 kts 90°
2026-04-25 18:42 48.18289 -44.27966 28509 ft 516 kts 90°
2026-04-25 18:43 48.19279 -44.17292 28507 ft 517 kts 91°
2026-04-25 18:43 48.20259 -44.06617 28508 ft 517 kts 91°
2026-04-25 18:44 48.21229 -43.95927 28513 ft 517 kts 91°
2026-04-25 18:44 48.22189 -43.85238 28514 ft 517 kts 91°
2026-04-25 18:45 48.23142 -43.74547 28519 ft 517 kts 91°
2026-04-25 18:45 48.24081 -43.63858 28525 ft 517 kts 91°
2026-04-25 18:46 48.25010 -43.53166 28525 ft 517 kts 91°
2026-04-25 18:46 48.25924 -43.42535 28529 ft 516 kts 91°
2026-04-25 18:47 48.26834 -43.31845 28535 ft 515 kts 91°
2026-04-25 18:47 48.27729 -43.21176 28534 ft 515 kts 91°
2026-04-25 18:48 48.28614 -43.10517 28536 ft 515 kts 91°
2026-04-25 18:48 48.29493 -42.99846 28538 ft 514 kts 91°
2026-04-25 18:49 48.30359 -42.89179 28546 ft 514 kts 91°
2026-04-25 18:49 48.31216 -42.78501 28543 ft 515 kts 92°
2026-04-25 18:50 48.32064 -42.67810 28546 ft 515 kts 92°
2026-04-25 18:50 48.32901 -42.57127 28553 ft 515 kts 92°
2026-04-25 18:51 48.33589 -42.48244 28554 ft 515 kts 92°
2026-04-25 18:51 48.34546 -42.35750 28555 ft 515 kts 92°
2026-04-25 18:52 48.35353 -42.25053 28562 ft 515 kts 92°
2026-04-25 18:52 48.36152 -42.14332 28564 ft 516 kts 92°
2026-04-25 18:53 48.36936 -42.03687 28562 ft 516 kts 92°
2026-04-25 18:53 48.37718 -41.92960 28572 ft 515 kts 92°
2026-04-25 18:54 48.38867 -41.76858 28571 ft 516 kts 92°
2026-04-25 18:55 48.39621 -41.66111 28576 ft 516 kts 92°
2026-04-25 18:55 48.40366 -41.55375 28582 ft 516 kts 92°
2026-04-25 18:56 48.41101 -41.44626 28580 ft 516 kts 92°
2026-04-25 18:56 48.41826 -41.33868 28584 ft 517 kts 92°
2026-04-25 18:57 48.42537 -41.23176 28592 ft 516 kts 92°
2026-04-25 18:57 48.43243 -41.12414 28591 ft 516 kts 92°
2026-04-25 18:58 48.43938 -41.01643 28600 ft 517 kts 92°
2026-04-25 18:58 48.44963 -40.85454 28623 ft 519 kts 92°
2026-04-25 18:59 48.46301 -40.63796 28657 ft 520 kts 92°
2026-04-25 19:00 48.47278 -40.47500 28686 ft 521 kts 92°
2026-04-25 19:01 48.48233 -40.31243 28717 ft 522 kts 92°
2026-04-25 19:01 48.48857 -40.20357 28726 ft 521 kts 92°
2026-04-25 19:02 48.49781 -40.03986 28740 ft 522 kts 93°
2026-04-25 19:03 48.50028 -39.91278 28745 ft 517 kts 98°
2026-04-25 19:03 48.49857 -39.76872 28743 ft 516 kts 99°
2026-04-25 19:04 48.49675 -39.60626 28751 ft 516 kts 98°
2026-04-25 19:05 48.49447 -39.39061 28758 ft 515 kts 98°
2026-04-25 19:06 48.49320 -39.28260 28761 ft 515 kts 98°
2026-04-25 19:06 48.49104 -39.12075 28767 ft 515 kts 98°
2026-04-25 19:07 48.48866 -38.95905 28772 ft 514 kts 98°
2026-04-25 19:08 48.48606 -38.79721 28771 ft 515 kts 98°
2026-04-25 19:09 48.48289 -38.61696 28776 ft 516 kts 98°
2026-04-25 19:10 48.47909 -38.41869 28759 ft 517 kts 98°
2026-04-25 19:10 48.47725 -38.32860 28742 ft 517 kts 98°
2026-04-25 19:11 48.47454 -38.20188 28724 ft 518 kts 98°
2026-04-25 19:11 48.47252 -38.11165 28709 ft 518 kts 98°
2026-04-25 19:12 48.46999 -38.00299 28704 ft 519 kts 98°
2026-04-25 19:12 48.46738 -37.89428 28712 ft 519 kts 98°
2026-04-25 19:13 48.46467 -37.78560 28730 ft 518 kts 99°
2026-04-25 19:13 48.46187 -37.67791 28747 ft 517 kts 99°
2026-04-25 19:14 48.45894 -37.56961 28760 ft 517 kts 99°
2026-04-25 19:14 48.45591 -37.46134 28784 ft 517 kts 99°
2026-04-25 19:15 48.45279 -37.35333 28804 ft 515 kts 99°
2026-04-25 19:15 48.44959 -37.24558 28819 ft 515 kts 99°
2026-04-25 19:16 48.44628 -37.13774 28834 ft 515 kts 99°
2026-04-25 19:16 48.44286 -37.02998 28856 ft 514 kts 99°
2026-04-25 19:17 48.43938 -36.92304 28871 ft 514 kts 99°
2026-04-25 19:17 48.43579 -36.81554 28889 ft 514 kts 99°
2026-04-25 19:18 48.43211 -36.70828 28907 ft 513 kts 99°
2026-04-25 19:18 48.42828 -36.60089 28925 ft 513 kts 99°
2026-04-25 19:19 48.42438 -36.49373 28942 ft 513 kts 99°
2026-04-25 19:19 48.42038 -36.38625 28959 ft 513 kts 99°
2026-04-25 19:20 48.41628 -36.27900 28974 ft 513 kts 99°
2026-04-25 19:20 48.41208 -36.17175 28992 ft 513 kts 99°
2026-04-25 19:21 48.40782 -36.06520 29010 ft 513 kts 99°
2026-04-25 19:21 48.40119 -35.90448 29020 ft 513 kts 99°
2026-04-25 19:22 48.39663 -35.79716 29019 ft 513 kts 99°
2026-04-25 19:23 48.38964 -35.63645 29018 ft 513 kts 99°
2026-04-25 19:23 48.38241 -35.47585 29029 ft 512 kts 99°
2026-04-25 19:24 48.37748 -35.36889 29029 ft 512 kts 99°
2026-04-25 19:25 48.36731 -35.15524 29028 ft 511 kts 99°
2026-04-25 19:25 48.36213 -35.04926 29028 ft 512 kts 99°
2026-04-25 19:26 48.35679 -34.94242 29027 ft 512 kts 99°
2026-04-25 19:26 48.35136 -34.83563 29028 ft 512 kts 99°
2026-04-25 19:27 48.34677 -34.74691 29028 ft 512 kts 99°
2026-04-25 19:27 48.34022 -34.62198 29028 ft 513 kts 99°
2026-04-25 19:28 48.33449 -34.51506 29028 ft 513 kts 99°
2026-04-25 19:28 48.32864 -34.40822 29029 ft 513 kts 99°
2026-04-25 19:29 48.32272 -34.30139 29028 ft 513 kts 99°
2026-04-25 19:29 48.31667 -34.19439 29028 ft 514 kts 99°
2026-04-25 19:30 48.31057 -34.08802 29028 ft 514 kts 99°
2026-04-25 19:30 48.30430 -33.98038 29028 ft 514 kts 99°
2026-04-25 19:31 48.29796 -33.87352 29030 ft 514 kts 99°
2026-04-25 19:31 48.29155 -33.76732 29039 ft 514 kts 99°
2026-04-25 19:32 48.28501 -33.66047 29035 ft 514 kts 99°
2026-04-25 19:32 48.27951 -33.57157 29038 ft 514 kts 99°
2026-04-25 19:33 48.27169 -33.44689 29035 ft 513 kts 99°
2026-04-25 19:33 48.26488 -33.34025 29034 ft 513 kts 99°
2026-04-25 19:34 48.25793 -33.23366 29035 ft 513 kts 99°
2026-04-25 19:34 48.25090 -33.12717 29044 ft 512 kts 99°
2026-04-25 19:35 48.24384 -33.02151 29049 ft 513 kts 99°
2026-04-25 19:35 48.23665 -32.91517 29047 ft 512 kts 99°
2026-04-25 19:36 48.22935 -32.80888 29048 ft 512 kts 99°
2026-04-25 19:36 48.22194 -32.70247 29045 ft 512 kts 99°
2026-04-25 19:37 48.21444 -32.59611 29048 ft 513 kts 99°
2026-04-25 19:37 48.20683 -32.48983 29045 ft 513 kts 99°
2026-04-25 19:38 48.19913 -32.38359 29047 ft 513 kts 99°
2026-04-25 19:38 48.19132 -32.27719 29044 ft 513 kts 99°
2026-04-25 19:39 48.18342 -32.17089 29048 ft 513 kts 99°
2026-04-25 19:39 48.17543 -32.06469 29048 ft 513 kts 99°
2026-04-25 19:40 48.16732 -31.95841 29047 ft 513 kts 100°
2026-04-25 19:40 48.15913 -31.85225 29045 ft 513 kts 100°
2026-04-25 19:41 48.15085 -31.74610 29044 ft 513 kts 100°
2026-04-25 19:41 48.14531 -31.67590 29045 ft 513 kts 100°
2026-04-25 19:42 48.13397 -31.53397 29045 ft 513 kts 100°
2026-04-25 19:42 48.12545 -31.42873 29046 ft 512 kts 100°
2026-04-25 19:43 48.11677 -31.32281 29048 ft 513 kts 100°
2026-04-25 19:43 48.10799 -31.21684 29052 ft 513 kts 100°
2026-04-25 19:44 48.09912 -31.11096 29055 ft 513 kts 100°
2026-04-25 19:44 48.09017 -31.00522 29064 ft 512 kts 100°
2026-04-25 19:45 48.08111 -30.89940 29073 ft 512 kts 100°
2026-04-25 19:45 48.07196 -30.79374 29088 ft 512 kts 100°
2026-04-25 19:46 48.06270 -30.68811 29093 ft 512 kts 100°
2026-04-25 19:46 48.05334 -30.58250 29093 ft 512 kts 100°
2026-04-25 19:47 48.04390 -30.47691 29091 ft 512 kts 100°
2026-04-25 19:47 48.03435 -30.37137 29094 ft 512 kts 100°
2026-04-25 19:48 48.02478 -30.26655 29092 ft 512 kts 100°
2026-04-25 19:48 48.01501 -30.16058 29093 ft 512 kts 100°
2026-04-25 19:49 48.00853 -30.09089 29092 ft 512 kts 100°
2026-04-25 19:49 47.98972 -29.95282 29089 ft 508 kts 111°
2026-04-25 19:50 47.95290 -29.80452 29094 ft 507 kts 113°
2026-04-25 19:51 47.92834 -29.70580 29093 ft 508 kts 113°
2026-04-25 19:51 47.90393 -29.60681 29093 ft 509 kts 113°
2026-04-25 19:52 47.87950 -29.50765 29093 ft 510 kts 112°
2026-04-25 19:52 47.85497 -29.40845 29091 ft 510 kts 112°
2026-04-25 19:53 47.83047 -29.30987 29099 ft 511 kts 112°
2026-04-25 19:53 47.80567 -29.21065 29103 ft 512 kts 112°
2026-04-25 19:54 47.78080 -29.11150 29101 ft 512 kts 113°
2026-04-25 19:54 47.75580 -29.01229 29103 ft 513 kts 112°
2026-04-25 19:55 47.73067 -28.91306 29101 ft 513 kts 112°
2026-04-25 19:55 47.70545 -28.81385 29103 ft 513 kts 113°
2026-04-25 19:56 47.68015 -28.71480 29101 ft 513 kts 113°
2026-04-25 19:56 47.65476 -28.61578 29103 ft 514 kts 113°
2026-04-25 19:57 47.63358 -28.53353 29102 ft 514 kts 113°
2026-04-25 19:57 47.60801 -28.43462 29103 ft 514 kts 113°
2026-04-25 19:58 47.58237 -28.33579 29100 ft 514 kts 113°
2026-04-25 19:58 47.55662 -28.23704 29101 ft 514 kts 113°
2026-04-25 19:59 47.53078 -28.13842 29103 ft 514 kts 113°
2026-04-25 19:59 47.50505 -28.04057 29100 ft 514 kts 113°
2026-04-25 20:00 47.47905 -27.94215 29103 ft 514 kts 113°
2026-04-25 20:00 47.45295 -27.84372 29099 ft 514 kts 113°
2026-04-25 20:01 47.41360 -27.69610 29101 ft 516 kts 113°
2026-04-25 20:01 47.38719 -27.59760 29102 ft 516 kts 113°
2026-04-25 20:02 47.36069 -27.49913 29101 ft 516 kts 113°
2026-04-25 20:02 47.33409 -27.40067 29100 ft 517 kts 113°
2026-04-25 20:03 47.30754 -27.30284 29102 ft 518 kts 113°
2026-04-25 20:03 47.28067 -27.20425 29100 ft 518 kts 113°
2026-04-25 20:04 47.25368 -27.10566 29103 ft 520 kts 113°
2026-04-25 20:04 47.22653 -27.00689 29103 ft 520 kts 113°
2026-04-25 20:05 47.19931 -26.90820 29119 ft 521 kts 113°
2026-04-25 20:05 47.17196 -26.80948 29120 ft 521 kts 113°
2026-04-25 20:06 47.14452 -26.71079 29121 ft 522 kts 112°
2026-04-25 20:06 47.11697 -26.61221 29115 ft 522 kts 113°
2026-04-25 20:07 47.08943 -26.51410 29121 ft 522 kts 113°
2026-04-25 20:07 47.06168 -26.41558 29119 ft 523 kts 113°
2026-04-25 20:08 47.03386 -26.31712 29122 ft 522 kts 114°
2026-04-25 20:08 47.00595 -26.21883 29119 ft 522 kts 114°
2026-04-25 20:09 46.97795 -26.12065 29122 ft 522 kts 114°
2026-04-25 20:09 46.94988 -26.02255 29120 ft 523 kts 114°
2026-04-25 20:10 46.92182 -25.92495 29129 ft 526 kts 114°
2026-04-25 20:10 46.89332 -25.82630 29133 ft 527 kts 114°
2026-04-25 20:11 46.86480 -25.72776 29128 ft 526 kts 114°
2026-04-25 20:11 46.83615 -25.62924 29131 ft 526 kts 114°
2026-04-25 20:12 46.80744 -25.53095 29138 ft 526 kts 114°
2026-04-25 20:12 46.78352 -25.44938 29139 ft 526 kts 114°
2026-04-25 20:13 46.74976 -25.33465 29137 ft 526 kts 114°
2026-04-25 20:13 46.72080 -25.23668 29138 ft 526 kts 114°
2026-04-25 20:14 46.69188 -25.13916 29141 ft 527 kts 114°
2026-04-25 20:14 46.66265 -25.04113 29133 ft 527 kts 113°
2026-04-25 20:15 46.63337 -24.94327 29129 ft 527 kts 113°
2026-04-25 20:15 46.60397 -24.84535 29131 ft 528 kts 113°
2026-04-25 20:16 46.57449 -24.74757 29128 ft 528 kts 113°
2026-04-25 20:16 46.54491 -24.64984 29130 ft 529 kts 113°
2026-04-25 20:17 46.51541 -24.55274 29129 ft 529 kts 113°
2026-04-25 20:17 46.48566 -24.45519 29129 ft 529 kts 113°
2026-04-25 20:18 46.45581 -24.35768 29133 ft 529 kts 113°
2026-04-25 20:18 46.42582 -24.26011 29140 ft 529 kts 113°
2026-04-25 20:19 46.39580 -24.16281 29138 ft 529 kts 113°
2026-04-25 20:19 46.36570 -24.06559 29138 ft 530 kts 113°
2026-04-25 20:20 46.33546 -23.96835 29138 ft 530 kts 113°
2026-04-25 20:20 46.30510 -23.87112 29138 ft 529 kts 113°
2026-04-25 20:21 46.27473 -23.77420 29140 ft 530 kts 113°
2026-04-25 20:21 46.24421 -23.67719 29138 ft 530 kts 113°
2026-04-25 20:22 46.22396 -23.61296 29138 ft 530 kts 113°
2026-04-25 20:22 46.18298 -23.48359 29140 ft 534 kts 114°
2026-04-25 20:23 46.15203 -23.38631 29138 ft 532 kts 114°
2026-04-25 20:23 46.12110 -23.28942 29138 ft 531 kts 114°
2026-04-25 20:24 46.09014 -23.19285 29140 ft 530 kts 114°
2026-04-25 20:24 46.05918 -23.09659 29138 ft 529 kts 114°
2026-04-25 20:25 46.02818 -23.00060 29141 ft 528 kts 114°
2026-04-25 20:25 45.99715 -22.90488 29138 ft 527 kts 114°
2026-04-25 20:26 45.96602 -22.80920 29140 ft 529 kts 114°
2026-04-25 20:26 45.93479 -22.71354 29138 ft 529 kts 115°
2026-04-25 20:27 45.90369 -22.61861 29141 ft 529 kts 115°
2026-04-25 20:27 45.87213 -22.52272 29139 ft 527 kts 115°
2026-04-25 20:28 45.84093 -22.42823 29140 ft 527 kts 115°
2026-04-25 20:28 45.80946 -22.33311 29138 ft 527 kts 115°
2026-04-25 20:29 45.77794 -22.23836 29139 ft 527 kts 115°
2026-04-25 20:29 45.74634 -22.14374 29139 ft 527 kts 115°
2026-04-25 20:30 45.71467 -22.04919 29138 ft 527 kts 115°
2026-04-25 20:30 45.68292 -21.95470 29138 ft 526 kts 115°
2026-04-25 20:31 45.65110 -21.86041 29140 ft 526 kts 116°
2026-04-25 20:31 45.61927 -21.76638 29138 ft 525 kts 116°
2026-04-25 20:32 45.58741 -21.67260 29139 ft 525 kts 116°
2026-04-25 20:32 45.55549 -21.57896 29139 ft 524 kts 116°
2026-04-25 20:33 45.52356 -21.48560 29138 ft 523 kts 116°
2026-04-25 20:33 45.50220 -21.42337 29137 ft 523 kts 117°
2026-04-25 20:34 45.45976 -21.30018 29137 ft 521 kts 117°
2026-04-25 20:34 45.42777 -21.20765 29139 ft 520 kts 117°
2026-04-25 20:35 45.39560 -21.11489 29139 ft 519 kts 118°
2026-04-25 20:35 45.36382 -21.02361 29138 ft 517 kts 118°
2026-04-25 20:36 45.33182 -20.93210 29139 ft 516 kts 118°
2026-04-25 20:36 45.29986 -20.84093 29138 ft 514 kts 118°
2026-04-25 20:37 45.26790 -20.75006 29140 ft 514 kts 119°
2026-04-25 20:37 45.23588 -20.65926 29141 ft 513 kts 119°
2026-04-25 20:38 45.20387 -20.56889 29148 ft 513 kts 120°
2026-04-25 20:38 45.17176 -20.47850 29147 ft 512 kts 120°
2026-04-25 20:39 45.13967 -20.38847 29149 ft 512 kts 120°
2026-04-25 20:39 45.11839 -20.32893 29147 ft 512 kts 120°
2026-04-25 20:40 45.07530 -20.20878 29147 ft 512 kts 120°
2026-04-25 20:40 45.04322 -20.11961 29147 ft 511 kts 120°
2026-04-25 20:41 45.01078 -20.03003 29149 ft 511 kts 122°
2026-04-25 20:41 44.97210 -19.94673 29148 ft 504 kts 133°
2026-04-25 20:42 44.92890 -19.86970 29146 ft 499 kts 134°
2026-04-25 20:42 44.88572 -19.79278 29150 ft 501 kts 134°
2026-04-25 20:43 44.84269 -19.71554 29147 ft 501 kts 133°
2026-04-25 20:43 44.79973 -19.63823 29148 ft 501 kts 134°
2026-04-25 20:44 44.76397 -19.57398 29147 ft 501 kts 134°
2026-04-25 20:44 44.71385 -19.48422 29147 ft 501 kts 134°
2026-04-25 20:45 44.67066 -19.40715 29147 ft 501 kts 134°
2026-04-25 20:45 44.63455 -19.34283 29147 ft 500 kts 134°
2026-04-25 20:46 44.59141 -19.26618 29144 ft 500 kts 134°
2026-04-25 20:46 44.54855 -19.19026 29138 ft 499 kts 134°
2026-04-25 20:47 44.50533 -19.11395 29138 ft 500 kts 134°
2026-04-25 20:47 44.46212 -19.03783 29138 ft 499 kts 134°
2026-04-25 20:48 44.41881 -18.96173 29139 ft 499 kts 134°
2026-04-25 20:48 44.37558 -18.88596 29140 ft 498 kts 134°
2026-04-25 20:49 44.33226 -18.81024 29138 ft 499 kts 134°
2026-04-25 20:49 44.28889 -18.73463 29138 ft 498 kts 134°
2026-04-25 20:50 44.24549 -18.65915 29138 ft 498 kts 134°
2026-04-25 20:50 44.20209 -18.58388 29138 ft 498 kts 134°
2026-04-25 20:51 44.15861 -18.50869 29138 ft 497 kts 134°
2026-04-25 20:51 44.11520 -18.43375 29139 ft 497 kts 134°
2026-04-25 20:52 44.07903 -18.37153 29140 ft 497 kts 134°
2026-04-25 20:52 44.02838 -18.28458 29137 ft 497 kts 134°
2026-04-25 20:53 43.98480 -18.20997 29137 ft 497 kts 134°
2026-04-25 20:53 43.94114 -18.13542 29137 ft 497 kts 134°
2026-04-25 20:54 43.89744 -18.06099 29140 ft 497 kts 134°
2026-04-25 20:54 43.85372 -17.98674 29138 ft 497 kts 134°
2026-04-25 20:55 43.80992 -17.91252 29140 ft 497 kts 134°
2026-04-25 20:55 43.76607 -17.83841 29137 ft 497 kts 134°
2026-04-25 20:56 43.72223 -17.76452 29143 ft 497 kts 134°
2026-04-25 20:56 43.67827 -17.69063 29149 ft 498 kts 134°
2026-04-25 20:57 43.63423 -17.61676 29147 ft 498 kts 134°
2026-04-25 20:57 43.59019 -17.54307 29140 ft 498 kts 134°
2026-04-25 20:58 43.54598 -17.46926 29138 ft 498 kts 134°
2026-04-25 20:58 43.50211 -17.39622 29139 ft 498 kts 134°
2026-04-25 20:59 43.45778 -17.32261 29139 ft 499 kts 134°
2026-04-25 20:59 43.41342 -17.24918 29139 ft 499 kts 134°
2026-04-25 21:00 43.38366 -17.20002 29136 ft 499 kts 134°
2026-04-25 21:01 43.30220 -17.06582 29138 ft 499 kts 134°
2026-04-25 21:01 43.25763 -16.99267 29139 ft 500 kts 134°
2026-04-25 21:02 43.21297 -16.91953 29139 ft 500 kts 134°
2026-04-25 21:02 43.16851 -16.84692 29136 ft 500 kts 134°
2026-04-25 21:03 43.12374 -16.77403 29139 ft 501 kts 134°
2026-04-25 21:03 43.07888 -16.70108 29139 ft 500 kts 134°
2026-04-25 21:04 43.03401 -16.62832 29132 ft 501 kts 134°
2026-04-25 21:04 42.98895 -16.55544 29129 ft 501 kts 134°
2026-04-25 21:05 42.94390 -16.48279 29130 ft 502 kts 134°
2026-04-25 21:05 42.89874 -16.41010 29128 ft 502 kts 134°
2026-04-25 21:06 42.85351 -16.33750 29130 ft 502 kts 134°
2026-04-25 21:06 42.80851 -16.26547 29136 ft 503 kts 134°
2026-04-25 21:07 42.76316 -16.19303 29139 ft 503 kts 134°
2026-04-25 21:07 42.71765 -16.12053 29138 ft 504 kts 134°
2026-04-25 21:08 42.67212 -16.04817 29138 ft 503 kts 133°
2026-04-25 21:08 42.62667 -15.97607 29142 ft 499 kts 134°
2026-04-25 21:09 42.55887 -15.86892 29150 ft 499 kts 134°
2026-04-25 21:09 42.51355 -15.79753 29147 ft 499 kts 134°
2026-04-25 21:10 42.46821 -15.72625 29148 ft 499 kts 134°
2026-04-25 21:10 42.42286 -15.65511 29147 ft 499 kts 134°
2026-04-25 21:11 42.37744 -15.58405 29143 ft 499 kts 134°
2026-04-25 21:11 42.33229 -15.51358 29128 ft 499 kts 134°
2026-04-25 21:12 42.28683 -15.44282 29118 ft 499 kts 134°
2026-04-25 21:12 42.24895 -15.38397 29121 ft 499 kts 134°
2026-04-25 21:13 42.19564 -15.30131 29120 ft 499 kts 134°
2026-04-25 21:13 42.15002 -15.23080 29121 ft 499 kts 134°
2026-04-25 21:14 42.10467 -15.16087 29118 ft 499 kts 134°
2026-04-25 21:14 42.05889 -15.09039 29121 ft 499 kts 134°
2026-04-25 21:15 42.01315 -15.02014 29121 ft 500 kts 133°
2026-04-25 21:15 41.97188 -14.94475 29123 ft 502 kts 125°
2026-04-25 21:16 41.93404 -14.86578 29119 ft 502 kts 124°
2026-04-25 21:16 41.89624 -14.78699 29119 ft 502 kts 124°
2026-04-25 21:17 41.85808 -14.70845 29121 ft 502 kts 124°
2026-04-25 21:17 41.81976 -14.63018 29120 ft 502 kts 124°
2026-04-25 21:18 41.78136 -14.55203 29120 ft 502 kts 124°
2026-04-25 21:18 41.74291 -14.47395 29121 ft 502 kts 124°
2026-04-25 21:19 41.70440 -14.39592 29119 ft 502 kts 124°
2026-04-25 21:19 41.66588 -14.31804 29120 ft 502 kts 124°
2026-04-25 21:20 41.64007 -14.26599 29119 ft 501 kts 124°
2026-04-25 21:20 41.58873 -14.16266 29120 ft 501 kts 124°
2026-04-25 21:21 41.55052 -14.08464 29122 ft 502 kts 123°
2026-04-25 21:21 41.51422 -14.00503 29119 ft 502 kts 122°
2026-04-25 21:22 41.47824 -13.92524 29122 ft 501 kts 122°
2026-04-25 21:22 41.44223 -13.84641 29121 ft 501 kts 122°
2026-04-25 21:23 41.40572 -13.76729 29121 ft 501 kts 122°
2026-04-25 21:23 41.36908 -13.68825 29119 ft 501 kts 122°
2026-04-25 21:24 41.33239 -13.60929 29156 ft 506 kts 122°
2026-04-25 21:24 41.31376 -13.56927 29454 ft 510 kts 122°
2026-04-25 21:24 41.29509 -13.52919 30024 ft 508 kts 122°
2026-04-25 21:25 41.27654 -13.48941 30592 ft 505 kts 122°
2026-04-25 21:25 41.25807 -13.44986 31180 ft 503 kts 122°
2026-04-25 21:25 41.23962 -13.41042 31709 ft 501 kts 123°
2026-04-25 21:25 41.22126 -13.37119 32181 ft 500 kts 123°
2026-04-25 21:26 41.20292 -13.33206 32654 ft 498 kts 123°
2026-04-25 21:26 41.18464 -13.29310 33132 ft 496 kts 123°
2026-04-25 21:26 41.16641 -13.25431 33602 ft 494 kts 123°
2026-04-25 21:26 41.14822 -13.21565 34034 ft 493 kts 123°
2026-04-25 21:27 41.13005 -13.17709 34413 ft 493 kts 123°
2026-04-25 21:27 41.11187 -13.13858 34773 ft 492 kts 123°
2026-04-25 21:27 41.09364 -13.10004 35042 ft 493 kts 123°
2026-04-25 21:27 41.07538 -13.06145 35062 ft 494 kts 123°
2026-04-25 21:28 41.03884 -12.98435 35112 ft 494 kts 123°
2026-04-25 21:28 41.00233 -12.90748 35112 ft 493 kts 123°
2026-04-25 21:29 40.96579 -12.83072 35112 ft 493 kts 123°
2026-04-25 21:29 40.93539 -12.76706 35113 ft 492 kts 123°
2026-04-25 21:30 40.89879 -12.69061 35110 ft 492 kts 123°
2026-04-25 21:30 40.86836 -12.62716 35111 ft 492 kts 123°
2026-04-25 21:31 40.82545 -12.53790 35113 ft 492 kts 123°
2026-04-25 21:31 40.78878 -12.46181 35102 ft 491 kts 123°
2026-04-25 21:32 40.75204 -12.38579 35082 ft 491 kts 123°
2026-04-25 21:32 40.71528 -12.30990 35094 ft 491 kts 123°
2026-04-25 21:33 40.67844 -12.23404 35095 ft 491 kts 124°
2026-04-25 21:33 40.64156 -12.15827 35095 ft 492 kts 124°
2026-04-25 21:34 40.60459 -12.08255 35080 ft 491 kts 124°
2026-04-25 21:34 40.56767 -12.00709 35097 ft 491 kts 124°
2026-04-25 21:35 40.53092 -11.93214 35093 ft 491 kts 124°
2026-04-25 21:35 40.49387 -11.85674 35072 ft 491 kts 124°
2026-04-25 21:36 40.45673 -11.78139 35066 ft 490 kts 124°
2026-04-25 21:36 40.41949 -11.70602 35068 ft 491 kts 124°
2026-04-25 21:37 40.38857 -11.64355 35065 ft 492 kts 124°
2026-04-25 21:37 40.34519 -11.55613 35062 ft 492 kts 124°
2026-04-25 21:38 40.30783 -11.48105 35063 ft 491 kts 124°
2026-04-25 21:38 40.27043 -11.40607 35068 ft 492 kts 124°
2026-04-25 21:39 40.23296 -11.33113 35066 ft 492 kts 124°
2026-04-25 21:39 40.19544 -11.25624 35067 ft 492 kts 124°
2026-04-25 21:40 40.15786 -11.18142 35063 ft 492 kts 124°
2026-04-25 21:40 40.12018 -11.10661 35068 ft 493 kts 124°
2026-04-25 21:41 40.08244 -11.03183 35069 ft 493 kts 124°
2026-04-25 21:41 40.04465 -10.95713 35068 ft 494 kts 124°
2026-04-25 21:42 40.00675 -10.88241 35064 ft 494 kts 124°
2026-04-25 21:42 39.96881 -10.80779 35063 ft 494 kts 124°
2026-04-25 21:43 39.93072 -10.73304 35068 ft 495 kts 124°
2026-04-25 21:43 39.89255 -10.65831 35064 ft 495 kts 124°
2026-04-25 21:44 39.85439 -10.58377 35062 ft 495 kts 124°
2026-04-25 21:45 39.79694 -10.47189 35065 ft 496 kts 124°
2026-04-25 21:45 39.75857 -10.39739 35077 ft 496 kts 124°
2026-04-25 21:46 39.72016 -10.32301 35078 ft 496 kts 124°
2026-04-25 21:46 39.68171 -10.24868 35083 ft 496 kts 124°
2026-04-25 21:47 39.64348 -10.17496 35088 ft 495 kts 124°
2026-04-25 21:47 39.60492 -10.10083 35081 ft 496 kts 124°
2026-04-25 21:48 39.56636 -10.02679 35083 ft 495 kts 124°
2026-04-25 21:48 39.52771 -9.95279 35085 ft 496 kts 124°
2026-04-25 21:49 39.48896 -9.87878 35079 ft 496 kts 124°
2026-04-25 21:49 39.45016 -9.80483 35075 ft 496 kts 124°
2026-04-25 21:50 39.41127 -9.73092 35072 ft 497 kts 124°
2026-04-25 21:50 39.37232 -9.65702 35072 ft 497 kts 123°
2026-04-25 21:51 39.33333 -9.58318 35076 ft 497 kts 124°
2026-04-25 21:51 39.29425 -9.50938 35070 ft 498 kts 124°
2026-04-25 21:52 39.25534 -9.43613 35071 ft 498 kts 124°
2026-04-25 21:52 39.21612 -9.36243 35064 ft 498 kts 123°
2026-04-25 21:53 39.17686 -9.28879 35072 ft 498 kts 123°
2026-04-25 21:53 39.13751 -9.21514 35070 ft 498 kts 123°
2026-04-25 21:54 39.09810 -9.14163 35079 ft 499 kts 123°
2026-04-25 21:54 39.05860 -9.06812 35081 ft 498 kts 123°
2026-04-25 21:55 39.01913 -8.99475 35078 ft 498 kts 123°
2026-04-25 21:55 38.97957 -8.92140 35079 ft 499 kts 123°
2026-04-25 21:56 38.94023 -8.84862 35077 ft 499 kts 123°
2026-04-25 21:56 38.90062 -8.77551 35072 ft 499 kts 123°
2026-04-25 21:57 38.86090 -8.70240 35070 ft 499 kts 123°
2026-04-25 21:57 38.82111 -8.62931 35071 ft 500 kts 123°
2026-04-25 21:58 38.78124 -8.55624 35079 ft 499 kts 123°
2026-04-25 21:58 38.74138 -8.48330 35073 ft 500 kts 123°
2026-04-25 21:59 38.70142 -8.41040 35070 ft 500 kts 123°
2026-04-25 21:59 38.66165 -8.33798 35061 ft 500 kts 123°
2026-04-25 22:00 38.60145 -8.22872 35056 ft 501 kts 123°
2026-04-25 22:00 38.56129 -8.15603 35057 ft 501 kts 123°
2026-04-25 22:01 38.52105 -8.08332 35053 ft 501 kts 123°
2026-04-25 22:01 38.48753 -8.02288 35059 ft 502 kts 123°
2026-04-25 22:02 38.44029 -7.93788 35049 ft 501 kts 123°
2026-04-25 22:02 38.39994 -7.86549 35047 ft 500 kts 123°
2026-04-25 22:03 38.35959 -7.79325 35046 ft 501 kts 123°
2026-04-25 22:03 38.31943 -7.72151 34915 ft 498 kts 123°
2026-04-25 22:04 38.29934 -7.68566 34640 ft 498 kts 123°
2026-04-25 22:04 38.27914 -7.64969 34321 ft 500 kts 123°
2026-04-25 22:04 38.25887 -7.61360 33985 ft 501 kts 123°
2026-04-25 22:04 38.23860 -7.57757 33647 ft 502 kts 123°
2026-04-25 22:05 38.21825 -7.54143 33332 ft 502 kts 123°
2026-04-25 22:05 38.19792 -7.50537 33033 ft 501 kts 123°
2026-04-25 22:05 38.17762 -7.46940 32761 ft 500 kts 124°
2026-04-25 22:05 38.15737 -7.43356 32456 ft 499 kts 124°
2026-04-25 22:06 38.13709 -7.39771 32158 ft 499 kts 124°
2026-04-25 22:06 38.11685 -7.36195 31823 ft 498 kts 124°
2026-04-25 22:06 38.09663 -7.32623 30978 ft 501 kts 124°
2026-04-25 22:06 38.07631 -7.29041 30248 ft 497 kts 124°
2026-04-25 22:07 38.05741 -7.25400 29573 ft 489 kts 118°
2026-04-25 22:07 38.04736 -7.22861 29134 ft 484 kts 112°
2026-04-25 22:07 38.03213 -7.17551 28252 ft 475 kts 104°
2026-04-25 22:07 38.02505 -7.13509 27514 ft 466 kts 100°
2026-04-25 22:08 38.01675 -7.09518 26666 ft 468 kts 108°
2026-04-25 22:08 38.00424 -7.05736 26010 ft 464 kts 116°
2026-04-25 22:08 37.98838 -7.02182 25407 ft 459 kts 119°
2026-04-25 22:08 37.97264 -6.98719 24899 ft 452 kts 118°
2026-04-25 22:09 37.95718 -6.95244 24143 ft 451 kts 117°
2026-04-25 22:09 37.94198 -6.91781 23470 ft 448 kts 117°
2026-04-25 22:09 37.92714 -6.88382 22845 ft 444 kts 117°
2026-04-25 22:09 37.91206 -6.84925 22232 ft 440 kts 117°
2026-04-25 22:10 37.89754 -6.81599 21650 ft 435 kts 117°
2026-04-25 22:10 37.88296 -6.78266 21063 ft 431 kts 117°
2026-04-25 22:10 37.86849 -6.74964 20491 ft 426 kts 117°
2026-04-25 22:10 37.85416 -6.71699 19922 ft 422 kts 117°
2026-04-25 22:11 37.83994 -6.68460 19357 ft 419 kts 117°
2026-04-25 22:11 37.82584 -6.65256 18795 ft 415 kts 117°
2026-04-25 22:11 37.81187 -6.62082 18232 ft 412 kts 117°
2026-04-25 22:11 37.79800 -6.58934 17673 ft 408 kts 117°
2026-04-25 22:12 37.78422 -6.55813 17121 ft 404 kts 117°
2026-04-25 22:12 37.77057 -6.52723 16566 ft 401 kts 117°
2026-04-25 22:12 37.75703 -6.49658 16022 ft 397 kts 117°
2026-04-25 22:12 37.75267 -6.48672 15846 ft 396 kts 117°
2026-04-25 22:13 37.73047 -6.43655 14931 ft 391 kts 117°
2026-04-25 22:13 37.71728 -6.40676 14391 ft 387 kts 117°
2026-04-25 22:13 37.70400 -6.37684 13849 ft 383 kts 117°
2026-04-25 22:13 37.69121 -6.34801 13320 ft 380 kts 117°
2026-04-25 22:14 37.67835 -6.31907 12785 ft 376 kts 117°
2026-04-25 22:14 37.66560 -6.29045 12266 ft 373 kts 118°
2026-04-25 22:14 37.65293 -6.26209 11743 ft 369 kts 118°
2026-04-25 22:14 37.64036 -6.23402 11225 ft 365 kts 118°
2026-04-25 22:15 37.62797 -6.20638 10934 ft 355 kts 118°
2026-04-25 22:15 37.61601 -6.17975 10776 ft 342 kts 118°
2026-04-25 22:15 37.60449 -6.15411 10623 ft 330 kts 118°
2026-04-25 22:16 37.58285 -6.10599 10334 ft 295 kts 118°
2026-04-25 22:16 37.57310 -6.08431 10208 ft 274 kts 118°
2026-04-25 22:16 37.56702 -6.07079 10135 ft 261 kts 118°
2026-04-25 22:16 37.55818 -6.05114 10050 ft 260 kts 118°
2026-04-25 22:17 37.54899 -6.03068 9867 ft 278 kts 118°
2026-04-25 22:17 37.53983 -6.00879 9535 ft 281 kts 108°
2026-04-25 22:17 37.53637 -5.98474 9227 ft 279 kts 93°
2026-04-25 22:17 37.53579 -5.96052 8901 ft 275 kts 90°
2026-04-25 22:18 37.53577 -5.93656 8526 ft 272 kts 90°
2026-04-25 22:18 37.53585 -5.91281 8150 ft 270 kts 90°
2026-04-25 22:18 37.53597 -5.88910 7780 ft 271 kts 90°
2026-04-25 22:18 37.53607 -5.86546 7401 ft 268 kts 90°
2026-04-25 22:19 37.53618 -5.84203 7030 ft 266 kts 90°
2026-04-25 22:19 37.53627 -5.81905 6663 ft 265 kts 90°
2026-04-25 22:19 37.53634 -5.79586 6288 ft 264 kts 90°
2026-04-25 22:19 37.53639 -5.77281 5912 ft 262 kts 90°
2026-04-25 22:20 37.53642 -5.74994 5537 ft 260 kts 90°
2026-04-25 22:20 37.53646 -5.72715 5167 ft 261 kts 90°
2026-04-25 22:20 37.53652 -5.70433 4796 ft 260 kts 90°
2026-04-25 22:20 37.53657 -5.68153 4422 ft 259 kts 90°
2026-04-25 22:21 37.53665 -5.65888 4047 ft 258 kts 90°
2026-04-25 22:21 37.53675 -5.63629 3672 ft 257 kts 90°
2026-04-25 22:21 37.53670 -5.61396 3312 ft 251 kts 95°
2026-04-25 22:21 37.53138 -5.59378 3088 ft 239 kts 127°
2026-04-25 22:22 37.51920 -5.58103 3032 ft 222 kts 154°
2026-04-25 22:22 37.50490 -5.57353 3034 ft 222 kts 159°
2026-04-25 22:22 37.48990 -5.57001 2989 ft 221 kts 186°
2026-04-25 22:22 37.47514 -5.57475 3010 ft 220 kts 198°
2026-04-25 22:23 37.46064 -5.58128 3003 ft 221 kts 199°
2026-04-25 22:23 37.44678 -5.58936 2990 ft 221 kts 217°
2026-04-25 22:23 37.43620 -5.60284 2999 ft 211 kts 229°
2026-04-25 22:23 37.42714 -5.61645 3015 ft 204 kts 230°
2026-04-25 22:24 37.42087 -5.63214 2989 ft 202 kts 259°
2026-04-25 22:24 37.41939 -5.64971 3010 ft 204 kts 265°
2026-04-25 22:24 37.41874 -5.66759 3003 ft 204 kts 268°
2026-04-25 22:24 37.41858 -5.68535 3000 ft 202 kts 269°
2026-04-25 22:25 37.41853 -5.70285 2757 ft 197 kts 269°
2026-04-25 22:25 37.41848 -5.71945 2530 ft 183 kts 270°
2026-04-25 22:25 37.41844 -5.73532 2279 ft 179 kts 270°
2026-04-25 22:25 37.41840 -5.75019 2047 ft 159 kts 270°
2026-04-25 22:26 37.41835 -5.76384 1844 ft 154 kts 270°
2026-04-25 22:26 37.41830 -5.77720 1635 ft 152 kts 269°
2026-04-25 22:26 37.41826 -5.79050 1415 ft 151 kts 270°
2026-04-25 22:26 37.41820 -5.80377 1238 ft 151 kts 270°
2026-04-25 22:27 37.41818 -5.81701 1064 ft 151 kts 270°
2026-04-25 22:27 37.41820 -5.83018 858 ft 151 kts 270°
2026-04-25 22:27 37.41810 -5.84334 643 ft 150 kts 270°
2026-04-25 22:27 37.41807 -5.85642 451 ft 149 kts 270°
2026-04-25 22:28 37.41799 -5.86944 243 ft 149 kts 270°
2026-04-25 22:28 37.41796 -5.88236 113 ft 140 kts 270°
2026-04-25 22:28 37.41794 -5.89278 105 ft 93 kts 270°
2026-04-25 22:28 37.41793 -5.89863 106 ft 48 kts 270°
2026-04-25 22:29 37.41791 -5.90161 101 ft 26 kts 269°
2026-04-25 22:29 37.41804 -5.90276 102 ft 11 kts 307°
2026-04-25 22:29 37.41878 -5.90303 100 ft 12 kts 359°
2026-04-25 22:30 37.41980 -5.90225 99 ft 10 kts 89°
2026-04-25 22:30 37.41980 -5.90134 100 ft 11 kts 90°
2026-04-25 22:30 37.41980 -5.90037 100 ft 11 kts 90°
2026-04-25 22:30 37.41980 -5.89972 100 ft 11 kts 90°
2026-04-25 22:31 37.41981 -5.89822 101 ft 14 kts 89°
2026-04-25 22:31 37.41986 -5.89695 101 ft 14 kts 78°
2026-04-25 22:31 37.42037 -5.89587 102 ft 15 kts 47°
2026-04-25 22:31 37.42094 -5.89529 102 ft 10 kts 13°
2026-04-25 22:32 37.42145 -5.89567 100 ft 10 kts 316°
2026-04-25 22:32 37.42196 -5.89629 99 ft 6 kts 314°
2026-04-25 22:32 37.42225 -5.89649 98 ft 4 kts 19°
2026-04-25 22:32 37.42230 -5.89611 98 ft 5 kts 85°
2026-04-25 22:33 37.42232 -5.89587 98 ft 2 kts 83°
2026-04-25 22:33 37.42233 -5.89577 98 ft 0 kts 83°